Time,TemperatureF,DewpointF,PressureIn,WindDirection,WindDirectionDegrees,WindSpeedMPH,WindSpeedGustMPH,Humidity,HourlyPrecipIn,Conditions,Clouds,dailyrainin,SoftwareType,DateUTC
2013-03-19 00:04:00,57.3,54.4,29.88,North,360,0.0,2.0,90,0.00,,,0.00,Wunderground v.1.13,2013-03-19 05:04:00,
2013-03-19 00:05:00,57.1,54.2,29.88,North,360,0.0,0.0,90,0.00,,,0.00,Wunderground v.1.13,2013-03-19 05:05:00,
2013-03-19 00:06:00,57.1,54.2,29.88,NNE,17,0.0,0.0,90,0.00,,,0.00,Wunderground v.1.13,2013-03-19 05:06:00,
2013-03-19 00:08:00,57.1,54.2,29.88,NNE,17,0.0,0.0,90,0.00,,,0.00,Wunderground v.1.13,2013-03-19 05:08:00,
2013-03-19 00:11:00,57.1,53.9,29.88,NNE,17,0.0,0.0,89,0.00,,,0.00,Wunderground v.1.13,2013-03-19 05:11:00,
2013-03-19 00:13:00,57.1,53.6,29.88,WNW,296,0.0,0.0,88,0.00,,,0.00,Wunderground v.1.13,2013-03-19 05:13:00,
2013-03-19 00:14:00,57.1,53.6,29.88,WNW,296,0.0,0.0,88,0.00,,,0.00,Wunderground v.1.13,2013-03-19 05:14:00,
2013-03-19 00:17:00,57.3,53.5,29.88,WNW,296,0.0,0.0,87,0.00,,,0.00,Wunderground v.1.13,2013-03-19 05:17:00,
2013-03-19 00:18:00,57.3,53.5,29.92,WNW,296,0.0,0.0,87,0.00,,,0.00,Wunderground v.1.13,2013-03-19 05:18:00,
2013-03-19 00:19:00,57.3,53.5,29.92,WNW,296,0.0,0.0,87,0.00,,,0.00,Wunderground v.1.13,2013-03-19 05:19:00,
2013-03-19 00:24:00,57.3,53.8,29.92,ESE,113,0.0,0.0,88,0.00,,,0.00,Wunderground v.1.13,2013-03-19 05:24:00,
2013-03-19 00:25:00,57.3,53.8,29.92,ESE,113,0.0,0.0,88,0.00,,,0.00,Wunderground v.1.13,2013-03-19 05:25:00,
2013-03-19 00:28:00,57.3,53.8,29.92,ESE,113,0.0,0.0,88,0.00,,,0.00,Wunderground v.1.13,2013-03-19 05:28:00,
2013-03-19 00:31:00,57.3,53.8,29.92,ESE,114,0.0,0.0,88,0.00,,,0.00,Wunderground v.1.13,2013-03-19 05:31:00,
2013-03-19 00:35:00,57.1,53.6,29.93,NNE,30,4.0,4.0,88,0.00,,,0.00,Wunderground v.1.13,2013-03-19 05:35:00,
2013-03-19 00:37:00,57.1,53.6,29.93,NNE,30,0.0,4.0,88,0.00,,,0.01,Wunderground v.1.13,2013-03-19 05:37:00,
2013-03-19 00:40:00,57.0,53.2,29.93,NNE,30,0.0,0.0,87,0.00,,,0.01,Wunderground v.1.13,2013-03-19 05:40:00,
2013-03-19 00:42:00,56.8,53.0,29.93,NNE,30,0.0,0.0,87,0.00,,,0.01,Wunderground v.1.13,2013-03-19 05:42:00,
2013-03-19 00:43:00,56.8,53.0,29.93,NNE,30,0.0,0.0,87,0.00,,,0.01,Wunderground v.1.13,2013-03-19 05:43:00,
2013-03-19 00:44:00,56.8,53.0,29.93,NNE,30,0.0,0.0,87,0.00,,,0.01,Wunderground v.1.13,2013-03-19 05:44:00,
2013-03-19 00:47:00,56.7,52.9,29.93,NNE,30,0.0,0.0,87,0.00,,,0.01,Wunderground v.1.13,2013-03-19 05:47:00,
2013-03-19 00:48:00,56.7,52.9,29.92,NNE,30,0.0,0.0,87,0.00,,,0.01,Wunderground v.1.13,2013-03-19 05:48:00,
2013-03-19 00:49:00,56.7,52.9,29.92,NNE,30,0.0,0.0,87,0.00,,,0.01,Wunderground v.1.13,2013-03-19 05:49:00,
2013-03-19 00:54:00,56.4,52.6,29.92,NNE,30,0.0,0.0,87,0.00,,,0.01,Wunderground v.1.13,2013-03-19 05:54:00,
2013-03-19 00:55:00,56.4,52.6,29.92,NNE,30,0.0,0.0,87,0.00,,,0.01,Wunderground v.1.13,2013-03-19 05:55:00,
2013-03-19 00:56:00,56.4,52.6,29.92,NNE,30,1.0,1.0,87,0.00,,,0.01,Wunderground v.1.13,2013-03-19 05:56:00,
2013-03-19 01:01:00,56.2,52.1,29.92,NNE,30,1.0,1.0,86,0.00,,,0.01,Wunderground v.1.13,2013-03-19 06:01:00,
2013-03-19 01:02:00,56.2,52.1,29.92,NNE,30,0.0,1.0,86,0.00,,,0.01,Wunderground v.1.13,2013-03-19 06:02:00,
2013-03-19 01:03:00,56.2,52.1,29.92,NNE,30,0.0,1.0,86,0.00,,,0.01,Wunderground v.1.13,2013-03-19 06:03:00,
2013-03-19 01:05:00,56.1,52.0,29.92,NNE,30,3.0,3.0,86,0.00,,,0.01,Wunderground v.1.13,2013-03-19 06:05:00,
2013-03-19 01:06:00,56.1,52.0,29.92,NNE,30,1.0,3.0,86,0.00,,,0.01,Wunderground v.1.13,2013-03-19 06:06:00,
2013-03-19 01:10:00,56.1,51.7,29.92,NNE,30,0.0,1.0,85,0.00,,,0.01,Wunderground v.1.13,2013-03-19 06:10:00,
2013-03-19 01:11:00,56.1,51.7,29.92,NNE,30,0.0,1.0,85,0.00,,,0.01,Wunderground v.1.13,2013-03-19 06:11:00,
2013-03-19 01:13:00,56.1,51.7,29.92,NNW,331,0.0,1.0,85,0.00,,,0.01,Wunderground v.1.13,2013-03-19 06:13:00,
2013-03-19 01:14:00,56.1,51.7,29.92,WSW,247,2.0,2.0,85,0.00,,,0.01,Wunderground v.1.13,2013-03-19 06:14:00,
2013-03-19 01:18:00,56.1,51.7,29.95,SSW,212,0.0,1.0,85,0.00,,,0.01,Wunderground v.1.13,2013-03-19 06:18:00,
2013-03-19 01:19:00,56.1,51.7,29.95,SSW,212,0.0,1.0,85,0.00,,,0.01,Wunderground v.1.13,2013-03-19 06:19:00,
2013-03-19 01:22:00,56.1,51.7,29.95,SSW,212,1.0,1.0,85,0.00,,,0.01,Wunderground v.1.13,2013-03-19 06:22:00,
2013-03-19 01:25:00,56.1,51.7,29.95,SSW,212,0.0,0.0,85,0.00,,,0.01,Wunderground v.1.13,2013-03-19 06:25:00,
2013-03-19 01:26:00,56.1,51.7,29.95,SSW,212,0.0,0.0,85,0.00,,,0.01,Wunderground v.1.13,2013-03-19 06:26:00,
2013-03-19 01:29:00,56.1,51.7,29.95,SSW,212,0.0,0.0,85,0.00,,,0.01,Wunderground v.1.13,2013-03-19 06:29:00,
2013-03-19 01:31:00,56.1,51.7,29.95,SSW,212,0.0,0.0,85,0.00,,,0.01,Wunderground v.1.13,2013-03-19 06:31:00,
2013-03-19 01:33:00,56.1,51.7,29.96,SSW,212,0.0,0.0,85,0.00,,,0.01,Wunderground v.1.13,2013-03-19 06:33:00,
2013-03-19 01:35:00,56.1,51.7,29.96,SSW,212,0.0,0.0,85,0.00,,,0.01,Wunderground v.1.13,2013-03-19 06:35:00,
2013-03-19 01:36:00,55.9,51.5,29.96,SSW,212,0.0,0.0,85,0.00,,,0.01,Wunderground v.1.13,2013-03-19 06:36:00,
2013-03-19 01:37:00,55.9,51.5,29.96,SSW,212,0.0,0.0,85,0.00,,,0.01,Wunderground v.1.13,2013-03-19 06:37:00,
2013-03-19 01:40:00,55.9,51.5,29.96,SSW,212,1.0,1.0,85,0.00,,,0.01,Wunderground v.1.13,2013-03-19 06:40:00,
2013-03-19 01:42:00,55.9,51.5,29.96,SSW,212,0.0,1.0,85,0.00,,,0.01,Wunderground v.1.13,2013-03-19 06:42:00,
2013-03-19 01:43:00,55.9,51.5,29.96,SSW,212,0.0,1.0,85,0.00,,,0.01,Wunderground v.1.13,2013-03-19 06:43:00,
2013-03-19 01:46:00,55.9,51.5,29.96,SSW,212,0.0,0.0,85,0.00,,,0.01,Wunderground v.1.13,2013-03-19 06:46:00,
2013-03-19 01:47:00,55.8,51.4,29.96,SSW,212,0.0,0.0,85,0.00,,,0.01,Wunderground v.1.13,2013-03-19 06:47:00,
2013-03-19 01:48:00,55.8,51.4,29.95,SSW,212,0.0,0.0,85,0.00,,,0.01,Wunderground v.1.13,2013-03-19 06:48:00,
2013-03-19 01:50:00,55.8,51.4,29.95,North,360,0.0,0.0,85,0.00,,,0.01,Wunderground v.1.13,2013-03-19 06:50:00,
2013-03-19 01:51:00,55.6,51.2,29.95,North,360,0.0,0.0,85,0.00,,,0.01,Wunderground v.1.13,2013-03-19 06:51:00,
2013-03-19 01:52:00,55.6,51.2,29.95,North,360,0.0,0.0,85,0.00,,,0.01,Wunderground v.1.13,2013-03-19 06:52:00,
2013-03-19 01:53:00,55.6,50.8,29.95,North,360,0.0,0.0,84,0.00,,,0.01,Wunderground v.1.13,2013-03-19 06:53:00,
2013-03-19 01:56:00,55.5,50.4,29.95,NNE,29,2.0,2.0,83,0.00,,,0.01,Wunderground v.1.13,2013-03-19 06:56:00,
2013-03-19 01:57:00,55.3,50.2,29.95,NNE,29,0.0,2.0,83,0.00,,,0.01,Wunderground v.1.13,2013-03-19 06:57:00,
2013-03-19 02:01:00,55.2,49.8,29.95,NNE,29,0.0,1.0,82,0.00,,,0.01,Wunderground v.1.13,2013-03-19 07:01:00,
2013-03-19 02:02:00,55.2,49.8,29.95,NNE,29,0.0,1.0,82,0.00,,,0.01,Wunderground v.1.13,2013-03-19 07:02:00,
2013-03-19 02:07:00,55.0,49.6,29.95,NNE,29,0.0,2.0,82,0.00,,,0.01,Wunderground v.1.13,2013-03-19 07:07:00,
2013-03-19 02:12:00,54.9,49.5,29.95,NNE,29,0.0,1.0,82,0.00,,,0.01,Wunderground v.1.13,2013-03-19 07:12:00,
2013-03-19 02:17:00,54.7,49.3,29.95,NNE,29,0.0,0.0,82,0.00,,,0.01,Wunderground v.1.13,2013-03-19 07:17:00,
2013-03-19 02:22:00,54.6,48.9,29.95,NNE,29,0.0,0.0,81,0.00,,,0.01,Wunderground v.1.13,2013-03-19 07:22:00,
2013-03-19 02:27:00,54.4,48.7,29.95,NNE,29,0.0,1.0,81,0.00,,,0.01,Wunderground v.1.13,2013-03-19 07:27:00,
2013-03-19 02:28:00,54.3,48.6,29.95,NNE,29,0.0,1.0,81,0.00,,,0.01,Wunderground v.1.13,2013-03-19 07:28:00,
2013-03-19 02:32:00,54.1,48.7,29.95,NNE,29,0.0,0.0,82,0.00,,,0.01,Wunderground v.1.13,2013-03-19 07:32:00,
2013-03-19 02:33:00,54.1,48.7,29.95,NNE,29,0.0,0.0,82,0.00,,,0.01,Wunderground v.1.13,2013-03-19 07:33:00,
2013-03-19 02:37:00,53.9,48.5,29.95,NNE,29,0.0,0.0,82,0.00,,,0.01,Wunderground v.1.13,2013-03-19 07:37:00,
2013-03-19 02:38:00,53.9,48.5,29.95,NNE,29,0.0,0.0,82,0.00,,,0.01,Wunderground v.1.13,2013-03-19 07:38:00,
2013-03-19 02:39:00,53.9,48.5,29.95,NNE,29,0.0,0.0,82,0.00,,,0.01,Wunderground v.1.13,2013-03-19 07:39:00,
2013-03-19 02:43:00,53.6,48.6,29.95,NNE,29,0.0,0.0,83,0.00,,,0.01,Wunderground v.1.13,2013-03-19 07:43:00,
2013-03-19 02:44:00,53.6,48.6,29.95,NNE,29,0.0,0.0,83,0.00,,,0.01,Wunderground v.1.13,2013-03-19 07:44:00,
2013-03-19 02:48:00,53.3,48.3,29.95,NNE,29,0.0,2.0,83,0.00,,,0.01,Wunderground v.1.13,2013-03-19 07:48:00,
2013-03-19 02:49:00,53.3,48.3,29.95,NNE,29,0.0,2.0,83,0.00,,,0.01,Wunderground v.1.13,2013-03-19 07:49:00,
2013-03-19 02:53:00,53.1,48.4,29.95,NNE,29,0.0,0.0,84,0.00,,,0.01,Wunderground v.1.13,2013-03-19 07:53:00,
2013-03-19 02:54:00,53.1,48.4,29.95,NNE,29,0.0,0.0,84,0.00,,,0.01,Wunderground v.1.13,2013-03-19 07:54:00,
2013-03-19 02:58:00,53.0,48.3,29.95,NNE,29,0.0,0.0,84,0.00,,,0.01,Wunderground v.1.13,2013-03-19 07:58:00,
2013-03-19 02:59:00,53.0,48.3,29.95,NNE,29,0.0,0.0,84,0.00,,,0.01,Wunderground v.1.13,2013-03-19 07:59:00,
2013-03-19 03:03:00,52.7,48.3,29.95,NNE,29,0.0,0.0,85,0.00,,,0.01,Wunderground v.1.13,2013-03-19 08:03:00,
2013-03-19 03:04:00,52.7,48.3,29.95,NNE,29,0.0,0.0,85,0.00,,,0.01,Wunderground v.1.13,2013-03-19 08:04:00,
2013-03-19 03:08:00,52.5,48.1,29.95,NNE,29,0.0,0.0,85,0.00,,,0.01,Wunderground v.1.13,2013-03-19 08:08:00,
2013-03-19 03:09:00,52.4,48.0,29.95,NNE,29,0.0,0.0,85,0.00,,,0.01,Wunderground v.1.13,2013-03-19 08:09:00,
2013-03-19 03:13:00,52.2,47.8,29.95,NNE,29,0.0,2.0,85,0.00,,,0.01,Wunderground v.1.13,2013-03-19 08:13:00,
2013-03-19 03:14:00,52.2,48.1,29.95,NNE,29,0.0,2.0,86,0.00,,,0.01,Wunderground v.1.13,2013-03-19 08:14:00,
2013-03-19 03:15:00,52.2,48.1,29.95,NNE,29,2.0,2.0,86,0.00,,,0.01,Wunderground v.1.13,2013-03-19 08:15:00,
2013-03-19 03:18:00,52.1,48.0,29.97,NNE,29,0.0,2.0,86,0.00,,,0.01,Wunderground v.1.13,2013-03-19 08:18:00,
2013-03-19 03:20:00,52.1,48.0,29.97,NNE,29,0.0,0.0,86,0.00,,,0.01,Wunderground v.1.13,2013-03-19 08:20:00,
2013-03-19 03:24:00,51.9,47.8,29.97,North,11,0.0,4.0,86,0.00,,,0.01,Wunderground v.1.13,2013-03-19 08:24:00,
2013-03-19 03:25:00,51.9,47.8,29.97,North,11,4.0,4.0,86,0.00,,,0.01,Wunderground v.1.13,2013-03-19 08:25:00,
2013-03-19 03:29:00,51.9,47.8,29.97,NNE,23,0.0,4.0,86,0.00,,,0.01,Wunderground v.1.13,2013-03-19 08:29:00,
2013-03-19 03:30:00,51.9,47.8,29.97,NNE,23,0.0,1.0,86,0.00,,,0.01,Wunderground v.1.13,2013-03-19 08:30:00,
2013-03-19 03:31:00,51.9,47.8,29.97,NNE,23,1.0,1.0,86,0.00,,,0.01,Wunderground v.1.13,2013-03-19 08:31:00,
2013-03-19 03:35:00,51.8,47.7,29.97,North,360,0.0,1.0,86,0.00,,,0.01,Wunderground v.1.13,2013-03-19 08:35:00,
2013-03-19 03:36:00,51.8,47.7,29.97,North,360,3.0,3.0,86,0.00,,,0.01,Wunderground v.1.13,2013-03-19 08:36:00,
2013-03-19 03:37:00,51.8,47.7,29.97,North,360,0.0,3.0,86,0.00,,,0.01,Wunderground v.1.13,2013-03-19 08:37:00,
2013-03-19 03:40:00,51.8,47.7,29.97,North,360,0.0,1.0,86,0.00,,,0.01,Wunderground v.1.13,2013-03-19 08:40:00,
2013-03-19 03:41:00,51.8,47.7,29.97,North,360,2.0,2.0,86,0.00,,,0.01,Wunderground v.1.13,2013-03-19 08:41:00,
2013-03-19 03:42:00,51.6,47.5,29.97,North,360,5.0,5.0,86,0.00,,,0.01,Wunderground v.1.13,2013-03-19 08:42:00,
2013-03-19 03:45:00,51.6,47.5,29.97,North,360,0.0,1.0,86,0.00,,,0.01,Wunderground v.1.13,2013-03-19 08:45:00,
2013-03-19 03:47:00,51.6,47.5,29.97,North,360,3.0,4.0,86,0.00,,,0.01,Wunderground v.1.13,2013-03-19 08:47:00,
2013-03-19 03:48:00,51.6,47.2,29.98,North,351,0.0,4.0,85,0.00,,,0.01,Wunderground v.1.13,2013-03-19 08:48:00,
2013-03-19 03:50:00,51.5,47.1,29.98,NNE,14,1.0,1.0,85,0.00,,,0.01,Wunderground v.1.13,2013-03-19 08:50:00,
2013-03-19 03:52:00,51.5,46.8,29.98,NNE,14,3.0,4.0,84,0.00,,,0.01,Wunderground v.1.13,2013-03-19 08:52:00,
2013-03-19 03:53:00,51.3,46.6,29.98,NNE,14,1.0,4.0,84,0.00,,,0.01,Wunderground v.1.13,2013-03-19 08:53:00,
2013-03-19 03:55:00,51.3,46.6,29.98,North,360,3.0,4.0,84,0.00,,,0.01,Wunderground v.1.13,2013-03-19 08:55:00,
2013-03-19 03:57:00,51.2,46.5,29.98,North,360,0.0,4.0,84,0.00,,,0.01,Wunderground v.1.13,2013-03-19 08:57:00,
2013-03-19 03:58:00,51.2,46.5,29.98,North,360,0.0,4.0,84,0.00,,,0.01,Wunderground v.1.13,2013-03-19 08:58:00,
2013-03-19 04:01:00,51.0,46.0,29.98,North,360,5.0,6.0,83,0.00,,,0.01,Wunderground v.1.13,2013-03-19 09:01:00,
2013-03-19 04:02:00,51.0,46.0,29.98,NNW,347,5.0,6.0,83,0.00,,,0.01,Wunderground v.1.13,2013-03-19 09:02:00,
2013-03-19 04:03:00,51.0,46.0,29.99,North,360,2.0,8.0,83,0.00,,,0.01,Wunderground v.1.13,2013-03-19 09:03:00,
2013-03-19 04:04:00,50.9,45.6,29.99,North,9,4.0,8.0,82,0.00,,,0.01,Wunderground v.1.13,2013-03-19 09:04:00,
2013-03-19 04:06:00,50.9,45.6,29.99,North,360,2.0,5.0,82,0.00,,,0.01,Wunderground v.1.13,2013-03-19 09:06:00,
2013-03-19 04:07:00,50.9,45.6,29.99,North,9,0.0,5.0,82,0.00,,,0.01,Wunderground v.1.13,2013-03-19 09:07:00,
2013-03-19 04:08:00,50.9,45.6,29.99,North,360,3.0,5.0,82,0.00,,,0.01,Wunderground v.1.13,2013-03-19 09:08:00,
2013-03-19 04:09:00,50.9,45.6,29.99,NNE,13,0.0,5.0,82,0.00,,,0.01,Wunderground v.1.13,2013-03-19 09:09:00,
2013-03-19 04:12:00,50.7,45.4,29.99,North,360,3.0,5.0,82,0.00,,,0.01,Wunderground v.1.13,2013-03-19 09:12:00,
2013-03-19 04:13:00,50.7,45.4,29.99,North,360,2.0,5.0,82,0.00,,,0.01,Wunderground v.1.13,2013-03-19 09:13:00,
2013-03-19 04:15:00,50.7,45.4,29.99,North,360,0.0,2.0,82,0.00,,,0.01,Wunderground v.1.13,2013-03-19 09:15:00,
2013-03-19 04:17:00,50.6,45.3,29.99,North,360,0.0,2.0,82,0.00,,,0.01,Wunderground v.1.13,2013-03-19 09:17:00,
2013-03-19 04:18:00,50.6,45.3,30.00,North,360,0.0,2.0,82,0.00,,,0.01,Wunderground v.1.13,2013-03-19 09:18:00,
2013-03-19 04:20:00,50.4,45.1,30.00,North,360,0.0,1.0,82,0.00,,,0.01,Wunderground v.1.13,2013-03-19 09:20:00,
2013-03-19 04:22:00,50.4,45.1,30.00,North,360,1.0,1.0,82,0.00,,,0.01,Wunderground v.1.13,2013-03-19 09:22:00,
2013-03-19 04:23:00,50.3,45.0,30.00,North,360,1.0,1.0,82,0.00,,,0.01,Wunderground v.1.13,2013-03-19 09:23:00,
2013-03-19 04:25:00,50.3,45.0,30.00,North,351,2.0,3.0,82,0.00,,,0.01,Wunderground v.1.13,2013-03-19 09:25:00,
2013-03-19 04:27:00,50.2,44.9,30.00,North,360,3.0,3.0,82,0.00,,,0.01,Wunderground v.1.13,2013-03-19 09:27:00,
2013-03-19 04:28:00,50.2,44.9,30.00,North,360,0.0,3.0,82,0.00,,,0.01,Wunderground v.1.13,2013-03-19 09:28:00,
2013-03-19 04:31:00,50.0,44.7,30.00,North,360,2.0,3.0,82,0.00,,,0.01,Wunderground v.1.13,2013-03-19 09:31:00,
2013-03-19 04:32:00,50.0,44.7,30.00,North,360,0.0,3.0,82,0.00,,,0.01,Wunderground v.1.13,2013-03-19 09:32:00,
2013-03-19 04:33:00,50.0,44.7,30.00,North,360,1.0,3.0,82,0.00,,,0.01,Wunderground v.1.13,2013-03-19 09:33:00,
2013-03-19 04:34:00,50.0,44.7,30.00,North,360,2.0,3.0,82,0.00,,,0.01,Wunderground v.1.13,2013-03-19 09:34:00,
2013-03-19 04:36:00,49.9,44.9,30.00,North,360,0.0,2.0,83,0.00,,,0.01,Wunderground v.1.13,2013-03-19 09:36:00,
2013-03-19 04:37:00,49.9,44.6,30.00,North,360,0.0,2.0,82,0.00,,,0.01,Wunderground v.1.13,2013-03-19 09:37:00,
2013-03-19 04:39:00,49.9,44.6,30.00,North,360,1.0,2.0,82,0.00,,,0.01,Wunderground v.1.13,2013-03-19 09:39:00,
2013-03-19 04:42:00,49.7,44.7,30.00,North,360,0.0,1.0,83,0.00,,,0.01,Wunderground v.1.13,2013-03-19 09:42:00,
2013-03-19 04:44:00,49.7,44.7,30.00,North,360,0.0,3.0,83,0.00,,,0.01,Wunderground v.1.13,2013-03-19 09:44:00,
2013-03-19 04:47:00,49.6,44.6,30.02,North,360,0.0,3.0,83,0.00,,,0.01,Wunderground v.1.13,2013-03-19 09:47:00,
2013-03-19 04:48:00,49.6,44.6,30.02,North,360,0.0,3.0,83,0.00,,,0.01,Wunderground v.1.13,2013-03-19 09:48:00,
2013-03-19 04:49:00,49.6,44.6,30.02,North,360,0.0,3.0,83,0.00,,,0.01,Wunderground v.1.13,2013-03-19 09:49:00,
2013-03-19 04:52:00,49.4,44.5,30.02,North,360,0.0,0.0,83,0.00,,,0.01,Wunderground v.1.13,2013-03-19 09:52:00,
2013-03-19 04:53:00,49.4,44.5,30.02,North,360,0.0,0.0,83,0.00,,,0.01,Wunderground v.1.13,2013-03-19 09:53:00,
2013-03-19 04:54:00,49.3,44.7,30.02,North,360,0.0,2.0,84,0.00,,,0.01,Wunderground v.1.13,2013-03-19 09:54:00,
2013-03-19 04:55:00,49.3,44.7,30.02,North,360,0.0,0.0,84,0.00,,,0.01,Wunderground v.1.13,2013-03-19 09:55:00,
2013-03-19 04:58:00,49.1,44.5,30.02,North,360,3.0,4.0,84,0.00,,,0.01,Wunderground v.1.13,2013-03-19 09:58:00,
2013-03-19 04:59:00,49.1,44.5,30.02,North,360,0.0,4.0,84,0.00,,,0.01,Wunderground v.1.13,2013-03-19 09:59:00,
2013-03-19 05:00:00,49.1,44.5,30.02,North,360,0.0,1.0,84,0.00,,,0.01,Wunderground v.1.13,2013-03-19 10:00:00,
2013-03-19 05:03:00,49.1,44.5,30.02,North,351,2.0,3.0,84,0.00,,,0.01,Wunderground v.1.13,2013-03-19 10:03:00,
2013-03-19 05:04:00,49.0,44.4,30.02,North,351,0.0,3.0,84,0.00,,,0.01,Wunderground v.1.13,2013-03-19 10:04:00,
2013-03-19 05:05:00,49.0,44.4,30.02,North,351,0.0,1.0,84,0.00,,,0.01,Wunderground v.1.13,2013-03-19 10:05:00,
2013-03-19 05:08:00,49.0,44.4,30.02,North,5,2.0,2.0,84,0.00,,,0.01,Wunderground v.1.13,2013-03-19 10:08:00,
2013-03-19 05:09:00,49.0,44.4,30.02,North,360,1.0,3.0,84,0.00,,,0.01,Wunderground v.1.13,2013-03-19 10:09:00,
2013-03-19 05:10:00,49.0,44.4,30.02,North,360,1.0,2.0,84,0.00,,,0.01,Wunderground v.1.13,2013-03-19 10:10:00,
2013-03-19 05:13:00,48.8,44.2,30.02,North,360,0.0,2.0,84,0.00,,,0.01,Wunderground v.1.13,2013-03-19 10:13:00,
2013-03-19 05:14:00,48.8,44.2,30.02,North,360,0.0,2.0,84,0.00,,,0.01,Wunderground v.1.13,2013-03-19 10:14:00,
2013-03-19 05:16:00,48.8,44.2,30.02,North,360,0.0,1.0,84,0.00,,,0.01,Wunderground v.1.13,2013-03-19 10:16:00,
2013-03-19 05:19:00,48.7,44.1,30.03,North,360,1.0,1.0,84,0.00,,,0.01,Wunderground v.1.13,2013-03-19 10:19:00,
2013-03-19 05:21:00,48.7,44.1,30.03,North,360,1.0,2.0,84,0.00,,,0.01,Wunderground v.1.13,2013-03-19 10:21:00,
2013-03-19 05:24:00,48.5,43.9,30.03,NNE,21,2.0,4.0,84,0.00,,,0.01,Wunderground v.1.13,2013-03-19 10:24:00,
2013-03-19 05:26:00,48.5,43.9,30.03,NNE,21,2.0,2.0,84,0.00,,,0.01,Wunderground v.1.13,2013-03-19 10:26:00,
2013-03-19 05:29:00,48.4,43.8,30.03,NNE,21,0.0,2.0,84,0.00,,,0.01,Wunderground v.1.13,2013-03-19 10:29:00,
2013-03-19 05:31:00,48.4,43.8,30.03,NNE,13,0.0,4.0,84,0.00,,,0.01,Wunderground v.1.13,2013-03-19 10:31:00,
2013-03-19 05:34:00,48.2,43.6,30.03,North,10,0.0,4.0,84,0.00,,,0.01,Wunderground v.1.13,2013-03-19 10:34:00,
2013-03-19 05:36:00,48.2,43.6,30.03,North,9,0.0,2.0,84,0.00,,,0.01,Wunderground v.1.13,2013-03-19 10:36:00,
2013-03-19 05:39:00,48.2,43.6,30.03,North,9,2.0,2.0,84,0.00,,,0.01,Wunderground v.1.13,2013-03-19 10:39:00,
2013-03-19 05:40:00,48.2,43.6,30.03,North,9,1.0,1.0,84,0.00,,,0.01,Wunderground v.1.13,2013-03-19 10:40:00,
2013-03-19 05:41:00,48.2,43.6,30.03,North,9,0.0,1.0,84,0.00,,,0.01,Wunderground v.1.13,2013-03-19 10:41:00,
2013-03-19 05:44:00,48.1,43.5,30.03,North,9,0.0,1.0,84,0.00,,,0.01,Wunderground v.1.13,2013-03-19 10:44:00,
2013-03-19 05:45:00,48.1,43.5,30.03,North,9,0.0,0.0,84,0.00,,,0.01,Wunderground v.1.13,2013-03-19 10:45:00,
2013-03-19 05:47:00,48.1,43.5,30.03,North,9,0.0,0.0,84,0.00,,,0.01,Wunderground v.1.13,2013-03-19 10:47:00,
2013-03-19 05:49:00,47.9,43.3,30.03,North,9,0.0,2.0,84,0.00,,,0.01,Wunderground v.1.13,2013-03-19 10:49:00,
2013-03-19 05:50:00,47.9,43.3,30.03,North,9,0.0,0.0,84,0.00,,,0.01,Wunderground v.1.13,2013-03-19 10:50:00,
2013-03-19 05:51:00,47.9,43.3,30.03,North,9,0.0,0.0,84,0.00,,,0.01,Wunderground v.1.13,2013-03-19 10:51:00,
2013-03-19 05:52:00,47.8,43.2,30.03,North,9,0.0,0.0,84,0.00,,,0.01,Wunderground v.1.13,2013-03-19 10:52:00,
2013-03-19 05:54:00,47.8,43.2,30.03,North,9,0.0,0.0,84,0.00,,,0.01,Wunderground v.1.13,2013-03-19 10:54:00,
2013-03-19 05:56:00,47.8,43.2,30.03,North,9,0.0,0.0,84,0.00,,,0.01,Wunderground v.1.13,2013-03-19 10:56:00,
2013-03-19 05:58:00,47.6,43.0,30.03,North,9,0.0,2.0,84,0.00,,,0.01,Wunderground v.1.13,2013-03-19 10:58:00,
2013-03-19 06:00:00,47.6,43.0,30.03,North,9,0.0,0.0,84,0.00,,,0.01,Wunderground v.1.13,2013-03-19 11:00:00,
2013-03-19 06:02:00,47.5,42.9,30.03,North,9,0.0,0.0,84,0.00,,,0.01,Wunderground v.1.13,2013-03-19 11:02:00,
2013-03-19 06:03:00,47.5,42.6,30.03,North,9,0.0,1.0,83,0.00,,,0.01,Wunderground v.1.13,2013-03-19 11:03:00,
2013-03-19 06:05:00,47.5,42.6,30.03,North,9,0.0,0.0,83,0.00,,,0.01,Wunderground v.1.13,2013-03-19 11:05:00,
2013-03-19 06:07:00,47.3,42.4,30.03,North,9,0.0,0.0,83,0.00,,,0.01,Wunderground v.1.13,2013-03-19 11:07:00,
2013-03-19 06:08:00,47.3,42.4,30.03,North,9,0.0,0.0,83,0.00,,,0.01,Wunderground v.1.13,2013-03-19 11:08:00,
2013-03-19 06:10:00,47.3,42.4,30.03,North,9,0.0,0.0,83,0.00,,,0.01,Wunderground v.1.13,2013-03-19 11:10:00,
2013-03-19 06:12:00,47.2,42.3,30.03,North,9,0.0,0.0,83,0.00,,,0.01,Wunderground v.1.13,2013-03-19 11:12:00,
2013-03-19 06:13:00,47.2,42.3,30.03,North,9,0.0,0.0,83,0.00,,,0.01,Wunderground v.1.13,2013-03-19 11:13:00,
2013-03-19 06:16:00,47.2,42.3,30.03,North,9,0.0,3.0,83,0.00,,,0.01,Wunderground v.1.13,2013-03-19 11:16:00,
2013-03-19 06:17:00,47.0,42.1,30.04,North,9,0.0,3.0,83,0.00,,,0.01,Wunderground v.1.13,2013-03-19 11:17:00,
2013-03-19 06:18:00,47.0,42.1,30.04,North,9,0.0,3.0,83,0.00,,,0.01,Wunderground v.1.13,2013-03-19 11:18:00,
2013-03-19 06:19:00,47.0,42.1,30.04,North,9,0.0,3.0,83,0.00,,,0.01,Wunderground v.1.13,2013-03-19 11:19:00,
2013-03-19 06:22:00,46.9,42.0,30.04,North,9,0.0,0.0,83,0.00,,,0.01,Wunderground v.1.13,2013-03-19 11:22:00,
2013-03-19 06:23:00,46.9,42.0,30.04,North,9,0.0,0.0,83,0.00,,,0.01,Wunderground v.1.13,2013-03-19 11:23:00,
2013-03-19 06:24:00,46.9,42.0,30.04,North,9,0.0,0.0,83,0.00,,,0.01,Wunderground v.1.13,2013-03-19 11:24:00,
2013-03-19 06:27:00,46.8,41.9,30.04,North,9,0.0,1.0,83,0.00,,,0.01,Wunderground v.1.13,2013-03-19 11:27:00,
2013-03-19 06:28:00,46.8,41.9,30.04,North,9,0.0,1.0,83,0.00,,,0.01,Wunderground v.1.13,2013-03-19 11:28:00,
2013-03-19 06:29:00,46.8,41.9,30.04,North,9,0.0,1.0,83,0.00,,,0.01,Wunderground v.1.13,2013-03-19 11:29:00,
2013-03-19 06:33:00,46.6,41.7,30.04,North,9,0.0,0.0,83,0.00,,,0.01,Wunderground v.1.13,2013-03-19 11:33:00,
2013-03-19 06:34:00,46.6,41.4,30.04,North,9,3.0,3.0,82,0.00,,,0.01,Wunderground v.1.13,2013-03-19 11:34:00,
2013-03-19 06:38:00,46.6,41.4,30.04,North,9,0.0,3.0,82,0.00,,,0.01,Wunderground v.1.13,2013-03-19 11:38:00,
2013-03-19 06:39:00,46.6,41.4,30.04,North,9,2.0,3.0,82,0.00,,,0.01,Wunderground v.1.13,2013-03-19 11:39:00,
2013-03-19 06:43:00,46.6,41.1,30.04,North,9,1.0,1.0,81,0.00,,,0.01,Wunderground v.1.13,2013-03-19 11:43:00,
2013-03-19 06:44:00,46.6,41.1,30.04,North,9,1.0,2.0,81,0.00,,,0.01,Wunderground v.1.13,2013-03-19 11:44:00,
2013-03-19 06:45:00,46.6,41.1,30.04,North,9,0.0,1.0,81,0.00,,,0.01,Wunderground v.1.13,2013-03-19 11:45:00,
2013-03-19 06:48:00,46.6,41.1,30.03,North,9,0.0,1.0,81,0.00,,,0.01,Wunderground v.1.13,2013-03-19 11:48:00,
2013-03-19 06:49:00,46.6,41.1,30.03,North,9,0.0,1.0,81,0.00,,,0.01,Wunderground v.1.13,2013-03-19 11:49:00,
2013-03-19 06:50:00,46.6,41.1,30.03,North,9,0.0,0.0,81,0.00,,,0.01,Wunderground v.1.13,2013-03-19 11:50:00,
2013-03-19 06:53:00,46.5,41.0,30.03,North,9,0.0,0.0,81,0.00,,,0.01,Wunderground v.1.13,2013-03-19 11:53:00,
2013-03-19 06:54:00,46.5,41.0,30.03,North,9,0.0,0.0,81,0.00,,,0.01,Wunderground v.1.13,2013-03-19 11:54:00,
2013-03-19 06:55:00,46.5,41.0,30.03,North,9,0.0,0.0,81,0.00,,,0.01,Wunderground v.1.13,2013-03-19 11:55:00,
2013-03-19 06:58:00,46.5,41.0,30.03,North,9,0.0,0.0,81,0.00,,,0.01,Wunderground v.1.13,2013-03-19 11:58:00,
2013-03-19 06:59:00,46.5,41.0,30.03,North,9,0.0,0.0,81,0.00,,,0.01,Wunderground v.1.13,2013-03-19 11:59:00,
2013-03-19 07:01:00,46.3,41.1,30.03,North,9,0.0,0.0,82,0.00,,,0.01,Wunderground v.1.13,2013-03-19 12:01:00,
2013-03-19 07:03:00,46.3,41.1,30.03,North,9,0.0,0.0,82,0.00,,,0.01,Wunderground v.1.13,2013-03-19 12:03:00,
2013-03-19 07:04:00,46.3,41.1,30.03,North,9,0.0,0.0,82,0.00,,,0.01,Wunderground v.1.13,2013-03-19 12:04:00,
2013-03-19 07:07:00,46.2,41.0,30.03,North,9,0.0,0.0,82,0.00,,,0.01,Wunderground v.1.13,2013-03-19 12:07:00,
2013-03-19 07:08:00,46.2,41.0,30.03,North,9,0.0,0.0,82,0.00,,,0.01,Wunderground v.1.13,2013-03-19 12:08:00,
2013-03-19 07:09:00,46.2,41.0,30.03,North,9,0.0,0.0,82,0.00,,,0.01,Wunderground v.1.13,2013-03-19 12:09:00,
2013-03-19 07:10:00,46.0,40.8,30.03,North,9,0.0,0.0,82,0.00,,,0.01,Wunderground v.1.13,2013-03-19 12:10:00,
2013-03-19 07:12:00,46.0,41.1,30.03,North,9,0.0,0.0,83,0.00,,,0.01,Wunderground v.1.13,2013-03-19 12:12:00,
2013-03-19 07:13:00,45.9,41.0,30.03,North,9,0.0,0.0,83,0.00,,,0.01,Wunderground v.1.13,2013-03-19 12:13:00,
2013-03-19 07:14:00,45.9,41.0,30.03,North,9,0.0,0.0,83,0.00,,,0.01,Wunderground v.1.13,2013-03-19 12:14:00,
2013-03-19 07:15:00,45.9,41.0,30.03,North,9,0.0,0.0,83,0.00,,,0.01,Wunderground v.1.13,2013-03-19 12:15:00,
2013-03-19 07:17:00,45.7,40.8,30.03,North,9,0.0,0.0,83,0.00,,,0.01,Wunderground v.1.13,2013-03-19 12:17:00,
2013-03-19 07:18:00,45.7,40.8,30.03,North,9,0.0,0.0,83,0.00,,,0.01,Wunderground v.1.13,2013-03-19 12:18:00,
2013-03-19 07:19:00,45.7,40.8,30.03,North,9,0.0,0.0,83,0.00,,,0.01,Wunderground v.1.13,2013-03-19 12:19:00,
2013-03-19 07:20:00,45.7,40.8,30.03,North,9,0.0,0.0,83,0.00,,,0.01,Wunderground v.1.13,2013-03-19 12:20:00,
2013-03-19 07:22:00,45.7,41.1,30.03,North,9,0.0,0.0,84,0.00,,,0.01,Wunderground v.1.13,2013-03-19 12:22:00,
2013-03-19 07:24:00,45.6,41.0,30.03,North,9,0.0,0.0,84,0.00,,,0.01,Wunderground v.1.13,2013-03-19 12:24:00,
2013-03-19 07:26:00,45.6,41.0,30.03,North,9,0.0,0.0,84,0.00,,,0.01,Wunderground v.1.13,2013-03-19 12:26:00,
2013-03-19 07:27:00,45.6,41.0,30.03,North,9,0.0,0.0,84,0.00,,,0.01,Wunderground v.1.13,2013-03-19 12:27:00,
2013-03-19 07:29:00,45.6,41.0,30.03,North,9,0.0,0.0,84,0.00,,,0.01,Wunderground v.1.13,2013-03-19 12:29:00,
2013-03-19 07:30:00,45.6,41.0,30.03,North,9,0.0,0.0,84,0.00,,,0.01,Wunderground v.1.13,2013-03-19 12:30:00,
2013-03-19 07:32:00,45.4,41.2,30.03,North,9,0.0,0.0,85,0.00,,,0.01,Wunderground v.1.13,2013-03-19 12:32:00,
2013-03-19 07:34:00,45.4,41.2,30.03,North,9,0.0,0.0,85,0.00,,,0.01,Wunderground v.1.13,2013-03-19 12:34:00,
2013-03-19 07:35:00,45.4,41.2,30.03,North,9,0.0,0.0,85,0.00,,,0.01,Wunderground v.1.13,2013-03-19 12:35:00,
2013-03-19 07:37:00,45.4,41.2,30.03,North,9,0.0,0.0,85,0.00,,,0.01,Wunderground v.1.13,2013-03-19 12:37:00,
2013-03-19 07:39:00,45.4,41.2,30.03,North,9,0.0,0.0,85,0.00,,,0.01,Wunderground v.1.13,2013-03-19 12:39:00,
2013-03-19 07:40:00,45.4,41.2,30.03,North,9,0.0,0.0,85,0.00,,,0.01,Wunderground v.1.13,2013-03-19 12:40:00,
2013-03-19 07:42:00,45.6,41.4,30.03,North,9,0.0,0.0,85,0.00,,,0.01,Wunderground v.1.13,2013-03-19 12:42:00,
2013-03-19 07:43:00,45.6,41.4,30.03,North,9,0.0,0.0,85,0.00,,,0.01,Wunderground v.1.13,2013-03-19 12:43:00,
2013-03-19 07:45:00,45.6,41.7,30.03,North,9,0.0,0.0,86,0.00,,,0.01,Wunderground v.1.13,2013-03-19 12:45:00,
2013-03-19 07:47:00,45.7,41.8,30.04,North,9,0.0,0.0,86,0.00,,,0.01,Wunderground v.1.13,2013-03-19 12:47:00,
2013-03-19 07:48:00,45.7,41.8,30.04,North,9,0.0,0.0,86,0.00,,,0.01,Wunderground v.1.13,2013-03-19 12:48:00,
2013-03-19 07:50:00,45.9,41.6,30.04,North,9,0.0,0.0,85,0.00,,,0.01,Wunderground v.1.13,2013-03-19 12:50:00,
2013-03-19 07:51:00,46.0,41.7,30.04,North,9,0.0,0.0,85,0.00,,,0.01,Wunderground v.1.13,2013-03-19 12:51:00,
2013-03-19 07:52:00,46.0,41.4,30.04,North,9,0.0,2.0,84,0.00,,,0.01,Wunderground v.1.13,2013-03-19 12:52:00,
2013-03-19 07:53:00,46.2,41.6,30.04,North,9,0.0,2.0,84,0.00,,,0.01,Wunderground v.1.13,2013-03-19 12:53:00,
2013-03-19 07:55:00,46.3,41.4,30.04,North,9,0.0,0.0,83,0.00,,,0.01,Wunderground v.1.13,2013-03-19 12:55:00,
2013-03-19 07:56:00,46.5,41.6,30.04,North,9,0.0,1.0,83,0.00,,,0.01,Wunderground v.1.13,2013-03-19 12:56:00,
2013-03-19 07:57:00,46.5,41.3,30.04,North,9,0.0,1.0,82,0.00,,,0.01,Wunderground v.1.13,2013-03-19 12:57:00,
2013-03-19 07:58:00,46.6,41.1,30.04,North,9,0.0,1.0,81,0.00,,,0.01,Wunderground v.1.13,2013-03-19 12:58:00,
2013-03-19 08:00:00,46.9,41.1,30.04,North,9,0.0,2.0,80,0.00,,,0.01,Wunderground v.1.13,2013-03-19 13:00:00,
2013-03-19 08:02:00,46.9,41.1,30.04,North,9,0.0,4.0,80,0.00,,,0.01,Wunderground v.1.13,2013-03-19 13:02:00,
2013-03-19 08:03:00,47.0,40.5,30.04,North,9,0.0,4.0,78,0.00,,,0.01,Wunderground v.1.13,2013-03-19 13:03:00,
2013-03-19 08:05:00,47.2,40.7,30.04,North,9,0.0,2.0,78,0.00,,,0.01,Wunderground v.1.13,2013-03-19 13:05:00,
2013-03-19 08:07:00,47.3,40.5,30.04,North,9,0.0,2.0,77,0.00,,,0.01,Wunderground v.1.13,2013-03-19 13:07:00,
2013-03-19 08:08:00,47.5,40.6,30.04,North,9,2.0,3.0,77,0.00,,,0.01,Wunderground v.1.13,2013-03-19 13:08:00,
2013-03-19 08:09:00,47.5,40.6,30.04,North,9,0.0,3.0,77,0.00,,,0.01,Wunderground v.1.13,2013-03-19 13:09:00,
2013-03-19 08:11:00,47.6,40.1,30.04,North,9,0.0,3.0,75,0.00,,,0.01,Wunderground v.1.13,2013-03-19 13:11:00,
2013-03-19 08:12:00,47.8,40.3,30.04,North,9,0.0,3.0,75,0.00,,,0.01,Wunderground v.1.13,2013-03-19 13:12:00,
2013-03-19 08:13:00,47.8,40.3,30.04,North,9,0.0,3.0,75,0.00,,,0.01,Wunderground v.1.13,2013-03-19 13:13:00,
2013-03-19 08:14:00,47.8,40.3,30.04,North,9,0.0,3.0,75,0.00,,,0.01,Wunderground v.1.13,2013-03-19 13:14:00,
2013-03-19 08:17:00,48.1,39.9,30.04,North,9,1.0,3.0,73,0.00,,,0.01,Wunderground v.1.13,2013-03-19 13:17:00,
2013-03-19 08:18:00,48.1,39.9,30.04,North,9,2.0,3.0,73,0.00,,,0.01,Wunderground v.1.13,2013-03-19 13:18:00,
2013-03-19 08:20:00,48.2,39.9,30.04,North,9,0.0,1.0,73,0.00,,,0.01,Wunderground v.1.13,2013-03-19 13:20:00,
2013-03-19 08:22:00,48.4,39.8,30.04,North,9,0.0,1.0,72,0.00,,,0.01,Wunderground v.1.13,2013-03-19 13:22:00,
2013-03-19 08:23:00,48.5,39.9,30.04,North,9,0.0,1.0,72,0.00,,,0.01,Wunderground v.1.13,2013-03-19 13:23:00,
2013-03-19 08:25:00,48.7,40.1,30.04,North,9,0.0,0.0,72,0.00,,,0.01,Wunderground v.1.13,2013-03-19 13:25:00,
2013-03-19 08:28:00,48.8,39.4,30.04,NE,47,0.0,1.0,70,0.00,,,0.01,Wunderground v.1.13,2013-03-19 13:28:00,
2013-03-19 08:30:00,49.0,40.0,30.04,NE,47,0.0,0.0,71,0.00,,,0.01,Wunderground v.1.13,2013-03-19 13:30:00,
2013-03-19 08:33:00,49.1,39.4,30.04,NE,47,0.0,1.0,69,0.00,,,0.01,Wunderground v.1.13,2013-03-19 13:33:00,
2013-03-19 08:35:00,49.3,39.9,30.04,SSW,203,2.0,2.0,70,0.00,,,0.01,Wunderground v.1.13,2013-03-19 13:35:00,
2013-03-19 08:38:00,49.4,38.9,30.04,SSW,212,1.0,3.0,67,0.00,,,0.01,Wunderground v.1.13,2013-03-19 13:38:00,
2013-03-19 08:39:00,49.6,39.1,30.04,SSW,212,0.0,3.0,67,0.00,,,0.01,Wunderground v.1.13,2013-03-19 13:39:00,
2013-03-19 08:41:00,49.7,38.4,30.04,SSW,212,0.0,2.0,65,0.00,,,0.01,Wunderground v.1.13,2013-03-19 13:41:00,
2013-03-19 08:43:00,49.9,39.0,30.04,SSW,212,0.0,2.0,66,0.00,,,0.01,Wunderground v.1.13,2013-03-19 13:43:00,
2013-03-19 08:44:00,50.0,39.1,30.04,SSW,212,0.0,2.0,66,0.00,,,0.01,Wunderground v.1.13,2013-03-19 13:44:00,
2013-03-19 08:46:00,50.2,39.3,30.04,North,351,3.0,3.0,66,0.00,,,0.01,Wunderground v.1.13,2013-03-19 13:46:00,
2013-03-19 08:48:00,50.3,39.0,30.04,North,360,0.0,3.0,65,0.00,,,0.01,Wunderground v.1.13,2013-03-19 13:48:00,
2013-03-19 08:50:00,50.4,39.5,30.04,North,351,1.0,1.0,66,0.00,,,0.01,Wunderground v.1.13,2013-03-19 13:50:00,
2013-03-19 08:51:00,50.4,37.9,30.04,North,351,3.0,3.0,62,0.00,,,0.01,Wunderground v.1.13,2013-03-19 13:51:00,
2013-03-19 08:53:00,50.6,38.1,30.04,North,351,0.0,3.0,62,0.00,,,0.01,Wunderground v.1.13,2013-03-19 13:53:00,
2013-03-19 08:55:00,50.9,38.7,30.04,North,351,2.0,2.0,63,0.00,,,0.01,Wunderground v.1.13,2013-03-19 13:55:00,
2013-03-19 08:57:00,51.2,37.8,30.04,SE,135,1.0,2.0,60,0.00,,,0.01,Wunderground v.1.13,2013-03-19 13:57:00,
2013-03-19 08:58:00,51.2,37.8,30.04,NE,48,0.0,3.0,60,0.00,,,0.01,Wunderground v.1.13,2013-03-19 13:58:00,
2013-03-19 09:00:00,51.3,37.9,30.04,NE,48,1.0,1.0,60,0.00,,,0.01,Wunderground v.1.13,2013-03-19 14:00:00,
2013-03-19 09:02:00,51.8,38.8,30.06,NNE,13,1.0,4.0,61,0.00,,,0.01,Wunderground v.1.13,2013-03-19 14:02:00,
2013-03-19 09:03:00,51.9,37.1,30.06,NNE,13,0.0,4.0,57,0.00,,,0.01,Wunderground v.1.13,2013-03-19 14:03:00,
2013-03-19 09:04:00,52.1,37.3,30.06,NNE,13,0.0,4.0,57,0.00,,,0.01,Wunderground v.1.13,2013-03-19 14:04:00,
2013-03-19 09:05:00,52.2,37.9,30.06,NNE,13,1.0,1.0,58,0.00,,,0.01,Wunderground v.1.13,2013-03-19 14:05:00,
2013-03-19 09:07:00,52.5,37.2,30.06,NNE,12,0.0,5.0,56,0.00,,,0.01,Wunderground v.1.13,2013-03-19 14:07:00,
2013-03-19 09:08:00,52.5,37.7,30.06,North,360,0.0,5.0,57,0.00,,,0.01,Wunderground v.1.13,2013-03-19 14:08:00,
2013-03-19 09:09:00,52.7,37.9,30.06,North,360,0.0,5.0,57,0.00,,,0.01,Wunderground v.1.13,2013-03-19 14:09:00,
2013-03-19 09:10:00,52.7,38.3,30.06,North,360,0.0,2.0,58,0.00,,,0.01,Wunderground v.1.13,2013-03-19 14:10:00,
2013-03-19 09:12:00,53.0,38.2,30.06,North,360,0.0,5.0,57,0.00,,,0.01,Wunderground v.1.13,2013-03-19 14:12:00,
2013-03-19 09:14:00,53.3,38.0,30.06,North,360,1.0,5.0,56,0.00,,,0.01,Wunderground v.1.13,2013-03-19 14:14:00,
2013-03-19 09:15:00,53.3,38.0,30.06,South,188,3.0,3.0,56,0.00,,,0.01,Wunderground v.1.13,2013-03-19 14:15:00,
2013-03-19 09:17:00,53.6,37.8,30.07,North,360,1.0,4.0,55,0.00,,,0.01,Wunderground v.1.13,2013-03-19 14:17:00,
2013-03-19 09:19:00,53.7,37.4,30.07,ENE,67,0.0,4.0,54,0.00,,,0.01,Wunderground v.1.13,2013-03-19 14:19:00,
2013-03-19 09:20:00,53.9,37.6,30.07,ENE,78,3.0,3.0,54,0.00,,,0.01,Wunderground v.1.13,2013-03-19 14:20:00,
2013-03-19 09:22:00,54.0,37.7,30.07,North,351,3.0,3.0,54,0.00,,,0.01,Wunderground v.1.13,2013-03-19 14:22:00,
2013-03-19 09:24:00,54.1,37.8,30.07,North,351,2.0,5.0,54,0.00,,,0.01,Wunderground v.1.13,2013-03-19 14:24:00,
2013-03-19 09:25:00,54.3,37.5,30.07,North,360,1.0,4.0,53,0.00,,,0.01,Wunderground v.1.13,2013-03-19 14:25:00,
2013-03-19 09:28:00,54.3,36.5,30.07,NNW,340,3.0,6.0,51,0.00,,,0.01,Wunderground v.1.13,2013-03-19 14:28:00,
2013-03-19 09:29:00,54.3,37.5,30.07,NNW,348,1.0,6.0,53,0.00,,,0.01,Wunderground v.1.13,2013-03-19 14:29:00,
2013-03-19 09:31:00,54.3,36.5,30.07,NNE,17,1.0,2.0,51,0.00,,,0.01,Wunderground v.1.13,2013-03-19 14:31:00,
2013-03-19 09:33:00,54.4,37.1,30.07,NNE,17,0.0,2.0,52,0.00,,,0.01,Wunderground v.1.13,2013-03-19 14:33:00,
2013-03-19 09:34:00,54.6,37.8,30.07,NNE,30,4.0,4.0,53,0.00,,,0.01,Wunderground v.1.13,2013-03-19 14:34:00,
2013-03-19 09:36:00,54.9,36.6,30.07,NNE,18,3.0,7.0,50,0.00,,,0.01,Wunderground v.1.13,2013-03-19 14:36:00,
2013-03-19 09:38:00,54.9,36.6,30.07,NNW,344,2.0,7.0,50,0.00,,,0.01,Wunderground v.1.13,2013-03-19 14:38:00,
2013-03-19 09:39:00,55.0,35.7,30.07,North,351,2.0,7.0,48,0.00,,,0.01,Wunderground v.1.13,2013-03-19 14:39:00,
2013-03-19 09:40:00,55.0,36.2,30.07,North,351,0.0,3.0,49,0.00,,,0.01,Wunderground v.1.13,2013-03-19 14:40:00,
2013-03-19 09:42:00,55.2,35.8,30.07,SE,132,0.0,3.0,48,0.00,,,0.01,Wunderground v.1.13,2013-03-19 14:42:00,
2013-03-19 09:44:00,55.3,36.5,30.07,ENE,66,0.0,8.0,49,0.00,,,0.01,Wunderground v.1.13,2013-03-19 14:44:00,
2013-03-19 09:46:00,55.6,36.7,30.07,North,360,3.0,3.0,49,0.00,,,0.01,Wunderground v.1.13,2013-03-19 14:46:00,
2013-03-19 09:47:00,55.8,36.9,30.07,North,360,2.0,3.0,49,0.00,,,0.01,Wunderground v.1.13,2013-03-19 14:47:00,
2013-03-19 09:49:00,55.9,37.0,30.07,North,360,0.0,3.0,49,0.00,,,0.01,Wunderground v.1.13,2013-03-19 14:49:00,
2013-03-19 09:50:00,56.1,37.2,30.07,North,360,0.0,1.0,49,0.00,,,0.01,Wunderground v.1.13,2013-03-19 14:50:00,
2013-03-19 09:51:00,56.4,37.5,30.07,SE,128,1.0,1.0,49,0.00,,,0.01,Wunderground v.1.13,2013-03-19 14:51:00,
2013-03-19 09:52:00,56.4,37.5,30.07,SE,129,1.0,1.0,49,0.00,,,0.01,Wunderground v.1.13,2013-03-19 14:52:00,
2013-03-19 09:54:00,56.5,36.5,30.07,NNE,23,2.0,3.0,47,0.00,,,0.01,Wunderground v.1.13,2013-03-19 14:54:00,
2013-03-19 09:55:00,56.5,36.5,30.07,SE,135,0.0,1.0,47,0.00,,,0.01,Wunderground v.1.13,2013-03-19 14:55:00,
2013-03-19 09:57:00,56.7,36.7,30.07,NNE,12,0.0,1.0,47,0.00,,,0.01,Wunderground v.1.13,2013-03-19 14:57:00,
2013-03-19 09:59:00,56.7,36.1,30.07,East,95,2.0,3.0,46,0.00,,,0.01,Wunderground v.1.13,2013-03-19 14:59:00,
2013-03-19 10:00:00,56.7,35.6,30.07,East,95,1.0,1.0,45,0.00,,,0.01,Wunderground v.1.13,2013-03-19 15:00:00,
2013-03-19 10:02:00,56.8,37.3,30.07,East,95,2.0,2.0,48,0.00,,,0.01,Wunderground v.1.13,2013-03-19 15:02:00,
2013-03-19 10:04:00,57.1,35.9,30.06,NNE,27,2.0,4.0,45,0.00,,,0.01,Wunderground v.1.13,2013-03-19 15:04:00,
2013-03-19 10:05:00,57.1,35.9,30.06,NNE,20,1.0,3.0,45,0.00,,,0.01,Wunderground v.1.13,2013-03-19 15:05:00,
2013-03-19 10:07:00,57.1,34.8,30.06,NNW,348,0.0,3.0,43,0.00,,,0.01,Wunderground v.1.13,2013-03-19 15:07:00,
2013-03-19 10:09:00,57.3,34.4,30.06,North,9,3.0,7.0,42,0.00,,,0.01,Wunderground v.1.13,2013-03-19 15:09:00,
2013-03-19 10:10:00,57.1,33.6,30.06,NNW,347,0.0,4.0,41,0.00,,,0.01,Wunderground v.1.13,2013-03-19 15:10:00,
2013-03-19 10:12:00,57.3,36.1,30.06,NNW,347,4.0,4.0,45,0.00,,,0.01,Wunderground v.1.13,2013-03-19 15:12:00,
2013-03-19 10:15:00,57.5,35.2,30.06,NNW,345,2.0,2.0,43,0.00,,,0.01,Wunderground v.1.13,2013-03-19 15:15:00,
2013-03-19 10:16:00,57.7,35.3,30.06,North,351,5.0,5.0,43,0.00,,,0.01,Wunderground v.1.13,2013-03-19 15:16:00,
2013-03-19 10:18:00,57.7,35.3,30.07,NNE,33,1.0,5.0,43,0.00,,,0.01,Wunderground v.1.13,2013-03-19 15:18:00,
2013-03-19 10:20:00,57.7,35.9,30.07,NW,304,0.0,2.0,44,0.00,,,0.01,Wunderground v.1.13,2013-03-19 15:20:00,
2013-03-19 10:21:00,57.8,34.8,30.07,NW,304,0.0,2.0,42,0.00,,,0.01,Wunderground v.1.13,2013-03-19 15:21:00,
2013-03-19 10:23:00,58.3,37.6,30.07,NW,317,3.0,3.0,46,0.00,,,0.01,Wunderground v.1.13,2013-03-19 15:23:00,
2013-03-19 10:25:00,58.6,39.0,30.07,North,360,2.0,2.0,48,0.00,,,0.01,Wunderground v.1.13,2013-03-19 15:25:00,
2013-03-19 10:26:00,58.6,35.0,30.07,North,360,0.0,2.0,41,0.00,,,0.01,Wunderground v.1.13,2013-03-19 15:26:00,
2013-03-19 10:28:00,58.4,35.4,30.07,ENE,59,0.0,6.0,42,0.00,,,0.01,Wunderground v.1.13,2013-03-19 15:28:00,
2013-03-19 10:31:00,58.6,33.7,30.07,North,9,0.0,1.0,39,0.00,,,0.01,Wunderground v.1.13,2013-03-19 15:31:00,
2013-03-19 10:33:00,58.8,34.5,30.08,SE,131,0.0,2.0,40,0.00,,,0.01,Wunderground v.1.13,2013-03-19 15:33:00,
2013-03-19 10:36:00,59.1,35.4,30.08,ENE,74,0.0,2.0,41,0.00,,,0.01,Wunderground v.1.13,2013-03-19 15:36:00,
2013-03-19 10:38:00,59.4,36.3,30.08,NNE,26,2.0,3.0,42,0.00,,,0.01,Wunderground v.1.13,2013-03-19 15:38:00,
2013-03-19 10:39:00,59.4,36.3,30.08,NNE,26,0.0,3.0,42,0.00,,,0.01,Wunderground v.1.13,2013-03-19 15:39:00,
2013-03-19 10:41:00,59.5,38.1,30.08,North,9,2.0,2.0,45,0.00,,,0.01,Wunderground v.1.13,2013-03-19 15:41:00,
2013-03-19 10:43:00,59.2,34.9,30.08,North,360,0.0,6.0,40,0.00,,,0.01,Wunderground v.1.13,2013-03-19 15:43:00,
2013-03-19 10:44:00,59.4,35.1,30.08,North,360,0.0,6.0,40,0.00,,,0.01,Wunderground v.1.13,2013-03-19 15:44:00,
2013-03-19 10:46:00,59.8,34.8,30.08,North,360,3.0,3.0,39,0.00,,,0.01,Wunderground v.1.13,2013-03-19 15:46:00,
2013-03-19 10:49:00,60.0,33.6,30.08,North,360,3.0,3.0,37,0.00,,,0.01,Wunderground v.1.13,2013-03-19 15:49:00,
2013-03-19 10:52:00,59.8,31.3,30.08,NNE,13,2.0,4.0,34,0.00,,,0.01,Wunderground v.1.13,2013-03-19 15:52:00,
2013-03-19 10:54:00,59.5,33.2,30.08,North,360,2.0,4.0,37,0.00,,,0.01,Wunderground v.1.13,2013-03-19 15:54:00,
2013-03-19 10:57:00,60.3,35.9,30.08,North,360,2.0,5.0,40,0.00,,,0.01,Wunderground v.1.13,2013-03-19 15:57:00,
2013-03-19 10:58:00,60.6,32.8,30.08,North,360,0.0,5.0,35,0.00,,,0.01,Wunderground v.1.13,2013-03-19 15:58:00,
2013-03-19 10:59:00,60.7,32.9,30.08,North,360,2.0,5.0,35,0.00,,,0.01,Wunderground v.1.13,2013-03-19 15:59:00,
2013-03-19 11:02:00,61.3,34.8,30.08,North,360,0.0,2.0,37,0.00,,,0.01,Wunderground v.1.13,2013-03-19 16:02:00,
2013-03-19 11:03:00,61.5,33.6,30.08,North,360,0.0,2.0,35,0.00,,,0.01,Wunderground v.1.13,2013-03-19 16:03:00,
2013-03-19 11:04:00,61.7,33.7,30.08,North,360,0.0,2.0,35,0.00,,,0.01,Wunderground v.1.13,2013-03-19 16:04:00,
2013-03-19 11:07:00,62.3,35.7,30.08,North,9,3.0,3.0,37,0.00,,,0.01,Wunderground v.1.13,2013-03-19 16:07:00,
2013-03-19 11:08:00,62.0,31.8,30.08,North,360,4.0,6.0,32,0.00,,,0.01,Wunderground v.1.13,2013-03-19 16:08:00,
2013-03-19 11:09:00,62.0,31.8,30.08,North,360,2.0,6.0,32,0.00,,,0.01,Wunderground v.1.13,2013-03-19 16:09:00,
2013-03-19 11:10:00,61.7,30.7,30.08,North,360,2.0,2.0,31,0.00,,,0.01,Wunderground v.1.13,2013-03-19 16:10:00,
2013-03-19 11:14:00,61.3,33.4,30.08,NNE,19,2.0,5.0,35,0.00,,,0.01,Wunderground v.1.13,2013-03-19 16:14:00,
2013-03-19 11:15:00,61.2,31.1,30.08,NNE,19,2.0,2.0,32,0.00,,,0.01,Wunderground v.1.13,2013-03-19 16:15:00,
2013-03-19 11:19:00,60.9,33.7,30.08,NNE,24,1.0,5.0,36,0.00,,,0.01,Wunderground v.1.13,2013-03-19 16:19:00,
2013-03-19 11:20:00,61.2,36.7,30.08,NNE,23,3.0,3.0,40,0.00,,,0.01,Wunderground v.1.13,2013-03-19 16:20:00,
2013-03-19 11:24:00,61.5,36.3,30.08,NNE,24,0.0,5.0,39,0.00,,,0.01,Wunderground v.1.13,2013-03-19 16:24:00,
2013-03-19 11:25:00,61.7,34.5,30.08,North,9,4.0,4.0,36,0.00,,,0.01,Wunderground v.1.13,2013-03-19 16:25:00,
2013-03-19 11:29:00,61.7,31.5,30.08,NNE,12,0.0,5.0,32,0.00,,,0.01,Wunderground v.1.13,2013-03-19 16:29:00,
2013-03-19 11:30:00,61.8,31.6,30.08,NNE,12,0.0,2.0,32,0.00,,,0.01,Wunderground v.1.13,2013-03-19 16:30:00,
2013-03-19 11:31:00,62.1,31.9,30.08,ENE,59,0.0,2.0,32,0.00,,,0.01,Wunderground v.1.13,2013-03-19 16:31:00,
2013-03-19 11:34:00,62.6,35.3,30.09,North,360,0.0,5.0,36,0.00,,,0.01,Wunderground v.1.13,2013-03-19 16:34:00,
2013-03-19 11:35:00,62.6,35.3,30.09,North,360,0.0,1.0,36,0.00,,,0.01,Wunderground v.1.13,2013-03-19 16:35:00,
2013-03-19 11:36:00,62.6,33.1,30.09,North,9,0.0,2.0,33,0.00,,,0.01,Wunderground v.1.13,2013-03-19 16:36:00,
2013-03-19 11:40:00,62.8,33.2,30.09,ENE,67,1.0,2.0,33,0.00,,,0.01,Wunderground v.1.13,2013-03-19 16:40:00,
2013-03-19 11:41:00,62.8,36.1,30.09,NE,43,1.0,2.0,37,0.00,,,0.01,Wunderground v.1.13,2013-03-19 16:41:00,
2013-03-19 11:45:00,62.6,31.5,30.09,NNE,13,2.0,4.0,31,0.00,,,0.01,Wunderground v.1.13,2013-03-19 16:45:00,
2013-03-19 11:47:00,62.3,32.8,30.09,North,360,7.0,8.0,33,0.00,,,0.01,Wunderground v.1.13,2013-03-19 16:47:00,
2013-03-19 11:50:00,61.7,31.5,30.08,North,9,1.0,3.0,32,0.00,,,0.01,Wunderground v.1.13,2013-03-19 16:50:00,
2013-03-19 11:51:00,61.5,32.1,30.08,North,9,3.0,4.0,33,0.00,,,0.01,Wunderground v.1.13,2013-03-19 16:51:00,
2013-03-19 11:53:00,61.5,35.0,30.08,North,360,3.0,4.0,37,0.00,,,0.01,Wunderground v.1.13,2013-03-19 16:53:00,
2013-03-19 11:55:00,62.0,33.3,30.08,North,360,0.0,3.0,34,0.00,,,0.01,Wunderground v.1.13,2013-03-19 16:55:00,
2013-03-19 11:56:00,62.1,34.8,30.08,North,360,3.0,3.0,36,0.00,,,0.01,Wunderground v.1.13,2013-03-19 16:56:00,
2013-03-19 11:58:00,62.4,32.1,30.08,North,360,1.0,5.0,32,0.00,,,0.01,Wunderground v.1.13,2013-03-19 16:58:00,
2013-03-19 12:00:00,62.4,31.3,30.08,North,360,0.0,2.0,31,0.00,,,0.01,Wunderground v.1.13,2013-03-19 17:00:00,
2013-03-19 12:01:00,62.4,31.3,30.08,North,360,0.0,2.0,31,0.00,,,0.01,Wunderground v.1.13,2013-03-19 17:01:00,
2013-03-19 12:02:00,62.8,33.2,30.08,North,360,1.0,2.0,33,0.00,,,0.01,Wunderground v.1.13,2013-03-19 17:02:00,
2013-03-19 12:03:00,62.9,32.6,30.08,NNE,15,3.0,3.0,32,0.00,,,0.01,Wunderground v.1.13,2013-03-19 17:03:00,
2013-03-19 12:05:00,63.1,32.7,30.08,North,11,4.0,4.0,32,0.00,,,0.01,Wunderground v.1.13,2013-03-19 17:05:00,
2013-03-19 12:06:00,63.1,32.7,30.08,NNE,13,3.0,4.0,32,0.00,,,0.01,Wunderground v.1.13,2013-03-19 17:06:00,
2013-03-19 12:07:00,63.4,32.2,30.08,NNE,13,0.0,4.0,31,0.00,,,0.01,Wunderground v.1.13,2013-03-19 17:07:00,
2013-03-19 12:09:00,64.0,33.5,30.08,NNE,22,1.0,4.0,32,0.00,,,0.01,Wunderground v.1.13,2013-03-19 17:09:00,
2013-03-19 12:11:00,64.3,33.8,30.08,NNE,22,2.0,2.0,32,0.00,,,0.01,Wunderground v.1.13,2013-03-19 17:11:00,
2013-03-19 12:13:00,64.7,32.5,30.08,ESE,121,2.0,3.0,30,0.00,,,0.01,Wunderground v.1.13,2013-03-19 17:13:00,
2013-03-19 12:14:00,64.5,30.6,30.08,SSE,149,0.0,3.0,28,0.00,,,0.01,Wunderground v.1.13,2013-03-19 17:14:00,
2013-03-19 12:17:00,65.0,33.6,30.08,North,11,0.0,5.0,31,0.00,,,0.01,Wunderground v.1.13,2013-03-19 17:17:00,
2013-03-19 12:18:00,65.0,31.1,30.08,North,360,7.0,11.0,28,0.00,,,0.01,Wunderground v.1.13,2013-03-19 17:18:00,
2013-03-19 12:19:00,64.5,31.5,30.08,North,360,5.0,11.0,29,0.00,,,0.01,Wunderground v.1.13,2013-03-19 17:19:00,
2013-03-19 12:22:00,64.2,32.1,30.08,North,360,0.0,4.0,30,0.00,,,0.01,Wunderground v.1.13,2013-03-19 17:22:00,
2013-03-19 12:23:00,64.2,32.9,30.08,North,360,0.0,4.0,31,0.00,,,0.01,Wunderground v.1.13,2013-03-19 17:23:00,
2013-03-19 12:25:00,64.2,31.3,30.08,North,360,2.0,2.0,29,0.00,,,0.01,Wunderground v.1.13,2013-03-19 17:25:00,
2013-03-19 12:27:00,64.5,33.2,30.08,NNE,19,0.0,3.0,31,0.00,,,0.01,Wunderground v.1.13,2013-03-19 17:27:00,
2013-03-19 12:28:00,65.0,34.4,30.08,NNE,19,3.0,3.0,32,0.00,,,0.01,Wunderground v.1.13,2013-03-19 17:28:00,
2013-03-19 12:29:00,65.1,32.0,30.08,North,360,1.0,3.0,29,0.00,,,0.01,Wunderground v.1.13,2013-03-19 17:29:00,
2013-03-19 12:30:00,65.3,32.2,30.08,North,360,2.0,2.0,29,0.00,,,0.01,Wunderground v.1.13,2013-03-19 17:30:00,
2013-03-19 12:32:00,65.3,31.3,30.08,North,9,5.0,5.0,28,0.00,,,0.01,Wunderground v.1.13,2013-03-19 17:32:00,
2013-03-19 12:33:00,65.0,30.2,30.09,North,351,2.0,7.0,27,0.00,,,0.01,Wunderground v.1.13,2013-03-19 17:33:00,
2013-03-19 12:34:00,64.7,30.8,30.09,NNE,15,2.0,7.0,28,0.00,,,0.01,Wunderground v.1.13,2013-03-19 17:34:00,
2013-03-19 12:35:00,64.5,30.6,30.09,NNE,15,0.0,2.0,28,0.00,,,0.01,Wunderground v.1.13,2013-03-19 17:35:00,
2013-03-19 12:37:00,64.3,31.3,30.09,North,360,3.0,5.0,29,0.00,,,0.01,Wunderground v.1.13,2013-03-19 17:37:00,
2013-03-19 12:38:00,64.5,31.5,30.09,North,360,0.0,5.0,29,0.00,,,0.01,Wunderground v.1.13,2013-03-19 17:38:00,
2013-03-19 12:39:00,64.8,31.8,30.09,NNE,25,6.0,8.0,29,0.00,,,0.01,Wunderground v.1.13,2013-03-19 17:39:00,
2013-03-19 12:41:00,64.8,30.0,30.09,North,5,0.0,5.0,27,0.00,,,0.01,Wunderground v.1.13,2013-03-19 17:41:00,
2013-03-19 12:42:00,64.7,29.9,30.09,North,5,2.0,5.0,27,0.00,,,0.01,Wunderground v.1.13,2013-03-19 17:42:00,
2013-03-19 12:43:00,64.8,30.9,30.09,North,5,0.0,5.0,28,0.00,,,0.01,Wunderground v.1.13,2013-03-19 17:43:00,
2013-03-19 12:44:00,65.1,31.2,30.09,NNE,15,0.0,5.0,28,0.00,,,0.01,Wunderground v.1.13,2013-03-19 17:44:00,
2013-03-19 12:47:00,65.3,30.4,30.09,North,360,1.0,8.0,27,0.00,,,0.01,Wunderground v.1.13,2013-03-19 17:47:00,
2013-03-19 12:48:00,65.3,30.4,30.09,NNE,17,1.0,8.0,27,0.00,,,0.01,Wunderground v.1.13,2013-03-19 17:48:00,
2013-03-19 12:49:00,65.5,30.6,30.09,NNE,21,1.0,8.0,27,0.00,,,0.01,Wunderground v.1.13,2013-03-19 17:49:00,
2013-03-19 12:52:00,65.3,28.5,30.09,North,9,1.0,7.0,25,0.00,,,0.01,Wunderground v.1.13,2013-03-19 17:52:00,
2013-03-19 12:53:00,65.1,28.4,30.09,NNE,20,4.0,7.0,25,0.00,,,0.01,Wunderground v.1.13,2013-03-19 17:53:00,
2013-03-19 12:54:00,65.0,30.2,30.09,NNE,24,4.0,7.0,27,0.00,,,0.01,Wunderground v.1.13,2013-03-19 17:54:00,
2013-03-19 12:57:00,64.8,30.0,30.09,NE,40,0.0,5.0,27,0.00,,,0.01,Wunderground v.1.13,2013-03-19 17:57:00,
2013-03-19 12:58:00,64.8,30.9,30.09,NE,36,4.0,5.0,28,0.00,,,0.01,Wunderground v.1.13,2013-03-19 17:58:00,
2013-03-19 12:59:00,65.1,28.4,30.09,North,9,4.0,5.0,25,0.00,,,0.01,Wunderground v.1.13,2013-03-19 17:59:00,
2013-03-19 13:03:00,65.5,31.5,30.09,NNE,14,0.0,4.0,28,0.00,,,0.01,Wunderground v.1.13,2013-03-19 18:03:00,
2013-03-19 13:04:00,65.6,31.6,30.09,NNE,14,0.0,4.0,28,0.00,,,0.01,Wunderground v.1.13,2013-03-19 18:04:00,
2013-03-19 13:08:00,66.0,30.1,30.09,North,360,6.0,8.0,26,0.00,,,0.01,Wunderground v.1.13,2013-03-19 18:08:00,
2013-03-19 13:09:00,65.8,29.0,30.09,NNE,13,0.0,8.0,25,0.00,,,0.01,Wunderground v.1.13,2013-03-19 18:09:00,
2013-03-19 13:14:00,66.1,29.2,30.09,North,360,0.0,4.0,25,0.00,,,0.01,Wunderground v.1.13,2013-03-19 18:14:00,
2013-03-19 13:15:00,66.1,29.2,30.09,North,360,2.0,2.0,25,0.00,,,0.01,Wunderground v.1.13,2013-03-19 18:15:00,
2013-03-19 13:19:00,66.6,28.6,30.08,North,360,1.0,3.0,24,0.00,,,0.01,Wunderground v.1.13,2013-03-19 18:19:00,
2013-03-19 13:20:00,66.6,28.6,30.08,North,360,0.0,1.0,24,0.00,,,0.01,Wunderground v.1.13,2013-03-19 18:20:00,
2013-03-19 13:24:00,67.1,32.0,30.08,North,360,4.0,4.0,27,0.00,,,0.01,Wunderground v.1.13,2013-03-19 18:24:00,
2013-03-19 13:25:00,67.1,32.0,30.08,North,360,7.0,7.0,27,0.00,,,0.01,Wunderground v.1.13,2013-03-19 18:25:00,
2013-03-19 13:26:00,66.8,31.7,30.08,North,360,4.0,7.0,27,0.00,,,0.01,Wunderground v.1.13,2013-03-19 18:26:00,
2013-03-19 13:29:00,66.6,30.6,30.08,NNE,13,1.0,7.0,26,0.00,,,0.01,Wunderground v.1.13,2013-03-19 18:29:00,
2013-03-19 13:30:00,66.6,30.6,30.08,NNE,13,1.0,2.0,26,0.00,,,0.01,Wunderground v.1.13,2013-03-19 18:30:00,
2013-03-19 13:31:00,66.8,30.8,30.08,North,360,7.0,7.0,26,0.00,,,0.01,Wunderground v.1.13,2013-03-19 18:31:00,
2013-03-19 13:34:00,66.1,28.2,30.08,North,360,2.0,7.0,24,0.00,,,0.01,Wunderground v.1.13,2013-03-19 18:34:00,
2013-03-19 13:35:00,66.1,28.2,30.08,North,360,3.0,3.0,24,0.00,,,0.01,Wunderground v.1.13,2013-03-19 18:35:00,
2013-03-19 13:36:00,66.0,29.1,30.08,NE,53,4.0,5.0,25,0.00,,,0.01,Wunderground v.1.13,2013-03-19 18:36:00,
2013-03-19 13:37:00,66.1,28.2,30.08,North,360,4.0,5.0,24,0.00,,,0.01,Wunderground v.1.13,2013-03-19 18:37:00,
2013-03-19 13:39:00,66.3,25.2,30.08,NNE,18,3.0,7.0,21,0.00,,,0.01,Wunderground v.1.13,2013-03-19 18:39:00,
2013-03-19 13:40:00,66.1,25.0,30.08,North,351,2.0,4.0,21,0.00,,,0.01,Wunderground v.1.13,2013-03-19 18:40:00,
2013-03-19 13:41:00,66.3,24.0,30.08,North,360,0.0,4.0,20,0.00,,,0.01,Wunderground v.1.13,2013-03-19 18:41:00,
2013-03-19 13:42:00,66.1,23.8,30.08,North,360,3.0,4.0,20,0.00,,,0.01,Wunderground v.1.13,2013-03-19 18:42:00,
2013-03-19 13:44:00,66.3,27.4,30.08,North,10,3.0,5.0,23,0.00,,,0.01,Wunderground v.1.13,2013-03-19 18:44:00,
2013-03-19 13:45:00,66.3,27.4,30.08,North,360,4.0,5.0,23,0.00,,,0.01,Wunderground v.1.13,2013-03-19 18:45:00,
2013-03-19 13:47:00,66.1,25.0,30.08,North,360,4.0,5.0,21,0.00,,,0.01,Wunderground v.1.13,2013-03-19 18:47:00,
2013-03-19 13:50:00,66.3,27.4,30.07,North,360,7.0,7.0,23,0.00,,,0.01,Wunderground v.1.13,2013-03-19 18:50:00,
2013-03-19 13:51:00,66.3,24.0,30.07,North,360,4.0,8.0,20,0.00,,,0.01,Wunderground v.1.13,2013-03-19 18:51:00,
2013-03-19 13:52:00,66.3,24.0,30.07,North,360,1.0,8.0,20,0.00,,,0.01,Wunderground v.1.13,2013-03-19 18:52:00,
2013-03-19 13:53:00,66.3,25.2,30.07,North,360,3.0,8.0,21,0.00,,,0.01,Wunderground v.1.13,2013-03-19 18:53:00,
2013-03-19 13:55:00,66.6,25.4,30.07,NNE,12,6.0,6.0,21,0.00,,,0.01,Wunderground v.1.13,2013-03-19 18:55:00,
2013-03-19 13:57:00,66.4,25.2,30.07,NNE,12,1.0,10.0,21,0.00,,,0.01,Wunderground v.1.13,2013-03-19 18:57:00,
2013-03-19 13:58:00,66.4,27.4,30.07,NNW,343,2.0,10.0,23,0.00,,,0.01,Wunderground v.1.13,2013-03-19 18:58:00,
2013-03-19 14:00:00,66.8,27.8,30.07,North,360,1.0,3.0,23,0.00,,,0.01,Wunderground v.1.13,2013-03-19 19:00:00,
2013-03-19 14:02:00,66.9,27.9,30.07,North,360,0.0,3.0,23,0.00,,,0.01,Wunderground v.1.13,2013-03-19 19:02:00,
2013-03-19 14:03:00,66.9,27.9,30.07,North,360,0.0,3.0,23,0.00,,,0.01,Wunderground v.1.13,2013-03-19 19:03:00,
2013-03-19 14:07:00,66.9,26.8,30.07,North,360,1.0,5.0,22,0.00,,,0.01,Wunderground v.1.13,2013-03-19 19:07:00,
2013-03-19 14:08:00,66.8,26.7,30.07,NNE,15,4.0,6.0,22,0.00,,,0.01,Wunderground v.1.13,2013-03-19 19:08:00,
2013-03-19 14:12:00,66.6,24.2,30.07,North,9,0.0,5.0,20,0.00,,,0.01,Wunderground v.1.13,2013-03-19 19:12:00,
2013-03-19 14:13:00,66.6,25.4,30.07,NW,326,0.0,5.0,21,0.00,,,0.01,Wunderground v.1.13,2013-03-19 19:13:00,
2013-03-19 14:17:00,66.8,24.4,30.07,North,351,5.0,5.0,20,0.00,,,0.01,Wunderground v.1.13,2013-03-19 19:17:00,
2013-03-19 14:18:00,66.9,24.5,30.07,North,351,4.0,5.0,20,0.00,,,0.01,Wunderground v.1.13,2013-03-19 19:18:00,
2013-03-19 14:22:00,66.9,28.9,30.07,North,360,0.0,6.0,24,0.00,,,0.01,Wunderground v.1.13,2013-03-19 19:22:00,
2013-03-19 14:23:00,66.9,27.9,30.07,North,360,1.0,6.0,23,0.00,,,0.01,Wunderground v.1.13,2013-03-19 19:23:00,
2013-03-19 14:27:00,67.4,28.3,30.07,NNW,342,3.0,7.0,23,0.00,,,0.01,Wunderground v.1.13,2013-03-19 19:27:00,
2013-03-19 14:28:00,67.2,28.1,30.07,NNW,342,0.0,7.0,23,0.00,,,0.01,Wunderground v.1.13,2013-03-19 19:28:00,
2013-03-19 14:29:00,67.2,28.1,30.07,NNW,342,2.0,7.0,23,0.00,,,0.01,Wunderground v.1.13,2013-03-19 19:29:00,
2013-03-19 14:33:00,67.2,29.2,30.07,North,351,2.0,7.0,24,0.00,,,0.01,Wunderground v.1.13,2013-03-19 19:33:00,
2013-03-19 14:34:00,67.2,29.2,30.07,North,351,0.0,7.0,24,0.00,,,0.01,Wunderground v.1.13,2013-03-19 19:34:00,
2013-03-19 14:38:00,67.6,30.5,30.07,North,360,6.0,6.0,25,0.00,,,0.01,Wunderground v.1.13,2013-03-19 19:38:00,
2013-03-19 14:39:00,67.7,29.6,30.07,NNE,14,3.0,8.0,24,0.00,,,0.01,Wunderground v.1.13,2013-03-19 19:39:00,
2013-03-19 14:40:00,67.7,29.6,30.07,North,9,4.0,4.0,24,0.00,,,0.01,Wunderground v.1.13,2013-03-19 19:40:00,
2013-03-19 14:43:00,67.6,30.5,30.07,North,360,2.0,5.0,25,0.00,,,0.01,Wunderground v.1.13,2013-03-19 19:43:00,
2013-03-19 14:44:00,67.6,29.5,30.07,NW,316,3.0,5.0,24,0.00,,,0.01,Wunderground v.1.13,2013-03-19 19:44:00,
2013-03-19 14:45:00,67.4,29.3,30.07,NNW,340,3.0,3.0,24,0.00,,,0.01,Wunderground v.1.13,2013-03-19 19:45:00,
2013-03-19 14:48:00,67.1,29.1,30.06,North,9,2.0,8.0,24,0.00,,,0.01,Wunderground v.1.13,2013-03-19 19:48:00,
2013-03-19 14:49:00,66.9,26.8,30.06,NW,313,0.0,8.0,22,0.00,,,0.01,Wunderground v.1.13,2013-03-19 19:49:00,
2013-03-19 14:50:00,66.9,26.8,30.06,NW,313,0.0,3.0,22,0.00,,,0.01,Wunderground v.1.13,2013-03-19 19:50:00,
2013-03-19 14:53:00,67.1,28.0,30.06,NNE,12,3.0,4.0,23,0.00,,,0.01,Wunderground v.1.13,2013-03-19 19:53:00,
2013-03-19 14:55:00,67.1,28.0,30.06,ENE,60,0.0,3.0,23,0.00,,,0.01,Wunderground v.1.13,2013-03-19 19:55:00,
2013-03-19 14:56:00,67.2,28.1,30.06,North,9,2.0,3.0,23,0.00,,,0.01,Wunderground v.1.13,2013-03-19 19:56:00,
2013-03-19 14:58:00,67.2,30.2,30.06,NNE,19,2.0,5.0,25,0.00,,,0.01,Wunderground v.1.13,2013-03-19 19:58:00,
2013-03-19 15:00:00,67.2,28.1,30.06,NNE,19,2.0,3.0,23,0.00,,,0.01,Wunderground v.1.13,2013-03-19 20:00:00,
2013-03-19 15:01:00,67.6,29.5,30.06,NNE,19,0.0,3.0,24,0.00,,,0.01,Wunderground v.1.13,2013-03-19 20:01:00,
2013-03-19 15:03:00,68.1,31.9,30.05,NNE,15,4.0,4.0,26,0.00,,,0.01,Wunderground v.1.13,2013-03-19 20:03:00,
2013-03-19 15:05:00,68.1,30.9,30.05,North,360,2.0,3.0,25,0.00,,,0.01,Wunderground v.1.13,2013-03-19 20:05:00,
2013-03-19 15:06:00,68.2,31.0,30.05,North,360,1.0,3.0,25,0.00,,,0.01,Wunderground v.1.13,2013-03-19 20:06:00,
2013-03-19 15:09:00,68.1,28.9,30.05,NNW,339,0.0,8.0,23,0.00,,,0.01,Wunderground v.1.13,2013-03-19 20:09:00,
2013-03-19 15:10:00,67.7,30.6,30.05,North,351,4.0,4.0,25,0.00,,,0.01,Wunderground v.1.13,2013-03-19 20:10:00,
2013-03-19 15:11:00,67.6,31.5,30.05,North,351,4.0,5.0,26,0.00,,,0.01,Wunderground v.1.13,2013-03-19 20:11:00,
2013-03-19 15:14:00,66.9,27.9,30.05,North,360,2.0,6.0,23,0.00,,,0.01,Wunderground v.1.13,2013-03-19 20:14:00,
2013-03-19 15:15:00,66.8,29.8,30.05,North,360,3.0,3.0,25,0.00,,,0.01,Wunderground v.1.13,2013-03-19 20:15:00,
2013-03-19 15:16:00,66.8,29.8,30.05,East,88,0.0,5.0,25,0.00,,,0.01,Wunderground v.1.13,2013-03-19 20:16:00,
2013-03-19 15:19:00,66.6,28.6,30.05,North,351,6.0,6.0,24,0.00,,,0.01,Wunderground v.1.13,2013-03-19 20:19:00,
2013-03-19 15:22:00,66.4,28.5,30.05,NNE,15,6.0,6.0,24,0.00,,,0.01,Wunderground v.1.13,2013-03-19 20:22:00,
2013-03-19 15:24:00,66.4,30.4,30.05,North,351,2.0,6.0,26,0.00,,,0.01,Wunderground v.1.13,2013-03-19 20:24:00,
2013-03-19 15:27:00,66.9,29.9,30.05,South,178,1.0,3.0,25,0.00,,,0.01,Wunderground v.1.13,2013-03-19 20:27:00,
2013-03-19 15:28:00,67.1,28.0,30.05,SSW,192,0.0,3.0,23,0.00,,,0.01,Wunderground v.1.13,2013-03-19 20:28:00,
2013-03-19 15:29:00,67.4,29.3,30.05,North,10,3.0,4.0,24,0.00,,,0.01,Wunderground v.1.13,2013-03-19 20:29:00,
2013-03-19 15:32:00,67.4,30.3,30.05,North,9,1.0,5.0,25,0.00,,,0.01,Wunderground v.1.13,2013-03-19 20:32:00,
2013-03-19 15:33:00,67.4,30.3,30.05,NNE,12,2.0,7.0,25,0.00,,,0.01,Wunderground v.1.13,2013-03-19 20:33:00,
2013-03-19 15:34:00,67.2,31.1,30.05,North,360,3.0,7.0,26,0.00,,,0.01,Wunderground v.1.13,2013-03-19 20:34:00,
2013-03-19 15:38:00,67.2,31.1,30.05,NNW,338,3.0,3.0,26,0.00,,,0.01,Wunderground v.1.13,2013-03-19 20:38:00,
2013-03-19 15:39:00,67.2,32.1,30.05,North,351,3.0,6.0,27,0.00,,,0.01,Wunderground v.1.13,2013-03-19 20:39:00,
2013-03-19 15:43:00,67.6,31.5,30.05,NE,41,1.0,2.0,26,0.00,,,0.01,Wunderground v.1.13,2013-03-19 20:43:00,
2013-03-19 15:44:00,67.6,31.5,30.05,NNW,340,1.0,4.0,26,0.00,,,0.01,Wunderground v.1.13,2013-03-19 20:44:00,
2013-03-19 15:48:00,67.7,31.6,30.05,North,9,2.0,5.0,26,0.00,,,0.01,Wunderground v.1.13,2013-03-19 20:48:00,
2013-03-19 15:49:00,67.7,31.6,30.05,North,9,0.0,5.0,26,0.00,,,0.01,Wunderground v.1.13,2013-03-19 20:49:00,
2013-03-19 15:53:00,67.2,31.1,30.05,NNE,14,2.0,4.0,26,0.00,,,0.01,Wunderground v.1.13,2013-03-19 20:53:00,
2013-03-19 15:54:00,67.2,31.1,30.05,North,360,3.0,4.0,26,0.00,,,0.01,Wunderground v.1.13,2013-03-19 20:54:00,
2013-03-19 15:59:00,66.9,29.9,30.05,North,9,2.0,5.0,25,0.00,,,0.01,Wunderground v.1.13,2013-03-19 20:59:00,
2013-03-19 16:04:00,67.1,29.1,30.05,NNE,15,3.0,5.0,24,0.00,,,0.01,Wunderground v.1.13,2013-03-19 21:04:00,
2013-03-19 16:09:00,66.8,27.8,30.05,NNE,17,2.0,7.0,23,0.00,,,0.01,Wunderground v.1.13,2013-03-19 21:09:00,
2013-03-19 16:10:00,66.8,27.8,30.05,NNE,17,2.0,3.0,23,0.00,,,0.01,Wunderground v.1.13,2013-03-19 21:10:00,
2013-03-19 16:14:00,66.8,28.8,30.05,North,11,4.0,4.0,24,0.00,,,0.01,Wunderground v.1.13,2013-03-19 21:14:00,
2013-03-19 16:15:00,66.8,28.8,30.05,NNE,28,2.0,2.0,24,0.00,,,0.01,Wunderground v.1.13,2013-03-19 21:15:00,
2013-03-19 16:17:00,66.8,28.8,30.05,NE,47,3.0,4.0,24,0.00,,,0.01,Wunderground v.1.13,2013-03-19 21:17:00,
2013-03-19 16:19:00,66.6,27.6,30.04,North,360,1.0,8.0,23,0.00,,,0.01,Wunderground v.1.13,2013-03-19 21:19:00,
2013-03-19 16:20:00,66.6,27.6,30.04,North,9,0.0,2.0,23,0.00,,,0.01,Wunderground v.1.13,2013-03-19 21:20:00,
2013-03-19 16:21:00,66.6,27.6,30.04,North,9,1.0,2.0,23,0.00,,,0.01,Wunderground v.1.13,2013-03-19 21:21:00,
2013-03-19 16:22:00,66.4,28.5,30.04,North,9,1.0,2.0,24,0.00,,,0.01,Wunderground v.1.13,2013-03-19 21:22:00,
2013-03-19 16:25:00,66.4,27.4,30.04,North,9,1.0,2.0,23,0.00,,,0.01,Wunderground v.1.13,2013-03-19 21:25:00,
2013-03-19 16:26:00,66.6,28.6,30.04,North,9,1.0,3.0,24,0.00,,,0.01,Wunderground v.1.13,2013-03-19 21:26:00,
2013-03-19 16:27:00,66.6,29.6,30.04,NNE,13,4.0,6.0,25,0.00,,,0.01,Wunderground v.1.13,2013-03-19 21:27:00,
2013-03-19 16:30:00,66.8,28.8,30.04,NNE,15,1.0,1.0,24,0.00,,,0.01,Wunderground v.1.13,2013-03-19 21:30:00,
2013-03-19 16:31:00,66.8,28.8,30.04,NNE,15,3.0,3.0,24,0.00,,,0.01,Wunderground v.1.13,2013-03-19 21:31:00,
2013-03-19 16:32:00,66.8,29.8,30.04,NNE,15,1.0,3.0,25,0.00,,,0.01,Wunderground v.1.13,2013-03-19 21:32:00,
2013-03-19 16:35:00,66.9,27.9,30.03,North,360,0.0,2.0,23,0.00,,,0.01,Wunderground v.1.13,2013-03-19 21:35:00,
2013-03-19 16:37:00,66.9,27.9,30.03,North,360,1.0,2.0,23,0.00,,,0.01,Wunderground v.1.13,2013-03-19 21:37:00,
2013-03-19 16:40:00,66.9,31.8,30.03,North,351,2.0,2.0,27,0.00,,,0.01,Wunderground v.1.13,2013-03-19 21:40:00,
2013-03-19 16:42:00,66.9,29.9,30.03,North,351,0.0,4.0,25,0.00,,,0.01,Wunderground v.1.13,2013-03-19 21:42:00,
2013-03-19 16:46:00,66.8,30.8,30.03,North,360,0.0,5.0,26,0.00,,,0.01,Wunderground v.1.13,2013-03-19 21:46:00,
2013-03-19 16:47:00,66.8,30.8,30.03,North,360,0.0,5.0,26,0.00,,,0.01,Wunderground v.1.13,2013-03-19 21:47:00,
2013-03-19 16:48:00,66.8,30.8,30.03,North,360,2.0,5.0,26,0.00,,,0.01,Wunderground v.1.13,2013-03-19 21:48:00,
2013-03-19 16:52:00,66.6,30.6,30.03,NNW,340,2.0,5.0,26,0.00,,,0.01,Wunderground v.1.13,2013-03-19 21:52:00,
2013-03-19 16:53:00,66.6,30.6,30.03,NNW,338,2.0,5.0,26,0.00,,,0.01,Wunderground v.1.13,2013-03-19 21:53:00,
2013-03-19 16:57:00,66.6,30.6,30.03,NNE,13,1.0,4.0,26,0.00,,,0.01,Wunderground v.1.13,2013-03-19 21:57:00,
2013-03-19 16:58:00,66.6,30.6,30.03,NNE,13,0.0,4.0,26,0.00,,,0.01,Wunderground v.1.13,2013-03-19 21:58:00,
2013-03-19 17:03:00,66.4,30.4,30.02,North,360,2.0,6.0,26,0.00,,,0.01,Wunderground v.1.13,2013-03-19 22:03:00,
2013-03-19 17:08:00,66.4,31.4,30.02,North,360,0.0,5.0,27,0.00,,,0.01,Wunderground v.1.13,2013-03-19 22:08:00,
2013-03-19 17:09:00,66.4,30.4,30.02,North,360,1.0,5.0,26,0.00,,,0.01,Wunderground v.1.13,2013-03-19 22:09:00,
2013-03-19 17:13:00,66.4,31.4,30.02,NNE,18,1.0,3.0,27,0.00,,,0.01,Wunderground v.1.13,2013-03-19 22:13:00,
2013-03-19 17:14:00,66.4,31.4,30.02,NNE,18,1.0,3.0,27,0.00,,,0.01,Wunderground v.1.13,2013-03-19 22:14:00,
2013-03-19 17:18:00,66.3,30.4,30.02,North,360,3.0,6.0,26,0.00,,,0.01,Wunderground v.1.13,2013-03-19 22:18:00,
2013-03-19 17:19:00,66.1,30.2,30.02,North,360,0.0,6.0,26,0.00,,,0.01,Wunderground v.1.13,2013-03-19 22:19:00,
2013-03-19 17:23:00,66.0,30.1,30.02,North,360,0.0,6.0,26,0.00,,,0.01,Wunderground v.1.13,2013-03-19 22:23:00,
2013-03-19 17:24:00,65.8,29.9,30.02,North,360,2.0,6.0,26,0.00,,,0.01,Wunderground v.1.13,2013-03-19 22:24:00,
2013-03-19 17:29:00,65.6,30.7,30.02,North,360,2.0,5.0,27,0.00,,,0.01,Wunderground v.1.13,2013-03-19 22:29:00,
2013-03-19 17:34:00,65.5,30.6,30.02,NNE,12,0.0,3.0,27,0.00,,,0.01,Wunderground v.1.13,2013-03-19 22:34:00,
2013-03-19 17:39:00,65.1,29.3,30.02,North,360,0.0,5.0,26,0.00,,,0.01,Wunderground v.1.13,2013-03-19 22:39:00,
2013-03-19 17:40:00,65.1,30.3,30.02,North,10,2.0,2.0,27,0.00,,,0.01,Wunderground v.1.13,2013-03-19 22:40:00,
2013-03-19 17:44:00,65.0,31.1,30.02,North,10,0.0,1.0,28,0.00,,,0.01,Wunderground v.1.13,2013-03-19 22:44:00,
2013-03-19 17:45:00,65.0,31.1,30.02,North,10,0.0,1.0,28,0.00,,,0.01,Wunderground v.1.13,2013-03-19 22:45:00,
2013-03-19 17:46:00,65.0,29.2,30.02,North,360,3.0,3.0,26,0.00,,,0.01,Wunderground v.1.13,2013-03-19 22:46:00,
2013-03-19 17:50:00,64.8,30.0,30.02,North,360,0.0,1.0,27,0.00,,,0.01,Wunderground v.1.13,2013-03-19 22:50:00,
2013-03-19 17:51:00,64.8,30.0,30.02,North,360,0.0,1.0,27,0.00,,,0.01,Wunderground v.1.13,2013-03-19 22:51:00,
2013-03-19 17:55:00,64.7,29.0,30.02,North,351,2.0,3.0,26,0.00,,,0.01,Wunderground v.1.13,2013-03-19 22:55:00,
2013-03-19 17:57:00,64.5,29.7,30.02,North,351,0.0,3.0,27,0.00,,,0.01,Wunderground v.1.13,2013-03-19 22:57:00,
2013-03-19 18:00:00,64.3,27.7,30.02,North,351,1.0,1.0,25,0.00,,,0.01,Wunderground v.1.13,2013-03-19 23:00:00,
2013-03-19 18:02:00,64.2,29.5,30.01,North,351,0.0,2.0,27,0.00,,,0.01,Wunderground v.1.13,2013-03-19 23:02:00,
2013-03-19 18:05:00,64.0,28.4,30.01,NNE,17,2.0,2.0,26,0.00,,,0.01,Wunderground v.1.13,2013-03-19 23:05:00,
2013-03-19 18:08:00,63.9,28.3,30.01,North,360,0.0,5.0,26,0.00,,,0.01,Wunderground v.1.13,2013-03-19 23:08:00,
2013-03-19 18:10:00,63.9,29.2,30.01,North,360,1.0,1.0,27,0.00,,,0.01,Wunderground v.1.13,2013-03-19 23:10:00,
2013-03-19 18:11:00,63.9,29.2,30.01,North,360,1.0,1.0,27,0.00,,,0.01,Wunderground v.1.13,2013-03-19 23:11:00,
2013-03-19 18:13:00,63.7,29.1,30.01,North,360,1.0,1.0,27,0.00,,,0.01,Wunderground v.1.13,2013-03-19 23:13:00,
2013-03-19 18:16:00,63.5,29.8,30.01,North,360,0.0,1.0,28,0.00,,,0.01,Wunderground v.1.13,2013-03-19 23:16:00,
2013-03-19 18:18:00,63.4,29.7,30.02,North,360,2.0,2.0,28,0.00,,,0.01,Wunderground v.1.13,2013-03-19 23:18:00,
2013-03-19 18:21:00,63.2,30.4,30.02,North,351,1.0,2.0,29,0.00,,,0.01,Wunderground v.1.13,2013-03-19 23:21:00,
2013-03-19 18:22:00,63.2,30.4,30.02,NNE,19,0.0,2.0,29,0.00,,,0.01,Wunderground v.1.13,2013-03-19 23:22:00,
2013-03-19 18:23:00,63.2,29.5,30.02,NNE,18,0.0,6.0,28,0.00,,,0.01,Wunderground v.1.13,2013-03-19 23:23:00,
2013-03-19 18:27:00,63.1,30.3,30.02,NNE,25,0.0,3.0,29,0.00,,,0.01,Wunderground v.1.13,2013-03-19 23:27:00,
2013-03-19 18:28:00,62.9,29.3,30.02,NNE,25,0.0,3.0,28,0.00,,,0.01,Wunderground v.1.13,2013-03-19 23:28:00,
2013-03-19 18:32:00,62.9,30.1,30.02,NNE,25,2.0,2.0,29,0.00,,,0.01,Wunderground v.1.13,2013-03-19 23:32:00,
2013-03-19 18:34:00,62.8,30.0,30.02,NNE,25,0.0,2.0,29,0.00,,,0.01,Wunderground v.1.13,2013-03-19 23:34:00,
2013-03-19 18:37:00,62.6,29.9,30.02,NNE,25,0.0,3.0,29,0.00,,,0.01,Wunderground v.1.13,2013-03-19 23:37:00,
2013-03-19 18:39:00,62.4,29.7,30.02,NNE,25,0.0,3.0,29,0.00,,,0.01,Wunderground v.1.13,2013-03-19 23:39:00,
2013-03-19 18:42:00,62.3,29.6,30.02,NNE,25,0.0,1.0,29,0.00,,,0.01,Wunderground v.1.13,2013-03-19 23:42:00,
2013-03-19 18:43:00,62.1,29.4,30.02,NNE,25,0.0,1.0,29,0.00,,,0.01,Wunderground v.1.13,2013-03-19 23:43:00,
2013-03-19 18:44:00,62.1,29.4,30.02,NNE,25,2.0,2.0,29,0.00,,,0.01,Wunderground v.1.13,2013-03-19 23:44:00,
2013-03-19 18:47:00,62.0,29.3,30.02,NNE,25,0.0,1.0,29,0.00,,,0.01,Wunderground v.1.13,2013-03-19 23:47:00,
2013-03-19 18:48:00,61.8,29.2,30.02,NNE,25,0.0,1.0,29,0.00,,,0.01,Wunderground v.1.13,2013-03-19 23:48:00,
2013-03-19 18:49:00,61.8,30.8,30.02,NNE,25,0.0,1.0,31,0.00,,,0.01,Wunderground v.1.13,2013-03-19 23:49:00,
2013-03-19 18:52:00,61.7,30.7,30.02,NNE,25,0.0,1.0,31,0.00,,,0.01,Wunderground v.1.13,2013-03-19 23:52:00,
2013-03-19 18:53:00,61.5,31.3,30.02,NNE,25,0.0,1.0,32,0.00,,,0.01,Wunderground v.1.13,2013-03-19 23:53:00,
2013-03-19 18:54:00,61.5,31.3,30.02,NNE,25,0.0,1.0,32,0.00,,,0.01,Wunderground v.1.13,2013-03-19 23:54:00,
2013-03-19 18:57:00,61.2,31.1,30.02,NNE,25,0.0,0.0,32,0.00,,,0.01,Wunderground v.1.13,2013-03-19 23:57:00,
2013-03-19 18:58:00,61.2,31.8,30.02,NNE,25,0.0,0.0,33,0.00,,,0.01,Wunderground v.1.13,2013-03-19 23:58:00,
2013-03-19 18:59:00,61.0,30.9,30.02,NNE,25,0.0,0.0,32,0.00,,,0.01,Wunderground v.1.13,2013-03-19 23:59:00,
2013-03-19 19:02:00,60.7,31.4,30.02,NNE,25,0.0,0.0,33,0.00,,,0.01,Wunderground v.1.13,2013-03-20 00:02:00,
2013-03-19 19:04:00,60.6,32.8,30.02,NNE,25,0.0,0.0,35,0.00,,,0.01,Wunderground v.1.13,2013-03-20 00:04:00,
2013-03-19 19:05:00,60.6,32.8,30.02,NNE,25,0.0,0.0,35,0.00,,,0.01,Wunderground v.1.13,2013-03-20 00:05:00,
2013-03-19 19:07:00,60.3,32.5,30.02,NNE,25,0.0,0.0,35,0.00,,,0.01,Wunderground v.1.13,2013-03-20 00:07:00,
2013-03-19 19:08:00,60.3,32.5,30.02,NNE,25,0.0,0.0,35,0.00,,,0.01,Wunderground v.1.13,2013-03-20 00:08:00,
2013-03-19 19:09:00,60.1,32.3,30.02,NNE,25,0.0,0.0,35,0.00,,,0.01,Wunderground v.1.13,2013-03-20 00:09:00,
2013-03-19 19:10:00,60.1,32.3,30.02,NNE,25,0.0,0.0,35,0.00,,,0.01,Wunderground v.1.13,2013-03-20 00:10:00,
2013-03-19 19:12:00,59.8,32.8,30.02,NNE,25,0.0,0.0,36,0.00,,,0.01,Wunderground v.1.13,2013-03-20 00:12:00,
2013-03-19 19:13:00,59.8,32.8,30.02,NNE,25,0.0,0.0,36,0.00,,,0.01,Wunderground v.1.13,2013-03-20 00:13:00,
2013-03-19 19:14:00,59.7,32.7,30.02,NNE,25,0.0,0.0,36,0.00,,,0.01,Wunderground v.1.13,2013-03-20 00:14:00,
2013-03-19 19:15:00,59.5,33.2,30.02,NNE,25,0.0,0.0,37,0.00,,,0.01,Wunderground v.1.13,2013-03-20 00:15:00,
2013-03-19 19:18:00,59.4,33.1,30.02,NNE,25,0.0,0.0,37,0.00,,,0.01,Wunderground v.1.13,2013-03-20 00:18:00,
2013-03-19 19:20:00,59.2,33.6,30.02,NNE,25,0.0,0.0,38,0.00,,,0.01,Wunderground v.1.13,2013-03-20 00:20:00,
2013-03-19 19:23:00,59.1,34.1,30.02,NNE,25,0.0,0.0,39,0.00,,,0.01,Wunderground v.1.13,2013-03-20 00:23:00,
2013-03-19 19:25:00,58.8,34.5,30.02,NNE,25,0.0,0.0,40,0.00,,,0.01,Wunderground v.1.13,2013-03-20 00:25:00,
2013-03-19 19:26:00,58.8,34.5,30.02,NNE,25,0.0,0.0,40,0.00,,,0.01,Wunderground v.1.13,2013-03-20 00:26:00,
2013-03-19 19:28:00,58.6,34.3,30.02,NNE,25,0.0,0.0,40,0.00,,,0.01,Wunderground v.1.13,2013-03-20 00:28:00,
2013-03-19 19:29:00,58.6,33.7,30.02,NNE,25,0.0,0.0,39,0.00,,,0.01,Wunderground v.1.13,2013-03-20 00:29:00,
2013-03-19 19:30:00,58.4,33.5,30.02,NNE,25,0.0,0.0,39,0.00,,,0.01,Wunderground v.1.13,2013-03-20 00:30:00,
2013-03-19 19:32:00,58.3,34.1,30.02,NNE,25,0.0,0.0,40,0.00,,,0.01,Wunderground v.1.13,2013-03-20 00:32:00,
2013-03-19 19:33:00,58.3,34.1,30.04,NNE,25,0.0,0.0,40,0.00,,,0.01,Wunderground v.1.13,2013-03-20 00:33:00,
2013-03-19 19:34:00,58.1,35.7,30.04,NNE,25,0.0,0.0,43,0.00,,,0.01,Wunderground v.1.13,2013-03-20 00:34:00,
2013-03-19 19:35:00,58.0,35.0,30.04,NNE,25,0.0,0.0,42,0.00,,,0.01,Wunderground v.1.13,2013-03-20 00:35:00,
2013-03-19 19:37:00,57.8,35.4,30.04,NNE,25,0.0,0.0,43,0.00,,,0.01,Wunderground v.1.13,2013-03-20 00:37:00,
2013-03-19 19:38:00,57.8,35.4,30.04,NNE,25,0.0,0.0,43,0.00,,,0.01,Wunderground v.1.13,2013-03-20 00:38:00,
2013-03-19 19:39:00,57.7,35.9,30.04,NNE,25,0.0,0.0,44,0.00,,,0.01,Wunderground v.1.13,2013-03-20 00:39:00,
2013-03-19 19:41:00,57.4,35.1,30.04,NNE,25,0.0,0.0,43,0.00,,,0.01,Wunderground v.1.13,2013-03-20 00:41:00,
2013-03-19 19:43:00,57.3,35.0,30.04,NNE,25,0.0,0.0,43,0.00,,,0.01,Wunderground v.1.13,2013-03-20 00:43:00,
2013-03-19 19:44:00,57.1,34.8,30.04,NNE,25,0.0,0.0,43,0.00,,,0.01,Wunderground v.1.13,2013-03-20 00:44:00,
2013-03-19 19:46:00,57.0,35.9,30.04,NNE,25,0.0,0.0,45,0.00,,,0.01,Wunderground v.1.13,2013-03-20 00:46:00,
2013-03-19 19:48:00,56.8,35.7,30.04,NNE,25,0.0,0.0,45,0.00,,,0.01,Wunderground v.1.13,2013-03-20 00:48:00,
2013-03-19 19:49:00,56.7,35.6,30.04,NNE,25,0.0,0.0,45,0.00,,,0.01,Wunderground v.1.13,2013-03-20 00:49:00,
2013-03-19 19:51:00,56.4,35.9,30.04,NNE,25,0.0,0.0,46,0.00,,,0.01,Wunderground v.1.13,2013-03-20 00:51:00,
2013-03-19 19:53:00,56.2,36.2,30.04,NNE,25,0.0,0.0,47,0.00,,,0.01,Wunderground v.1.13,2013-03-20 00:53:00,
2013-03-19 19:54:00,56.1,36.1,30.04,NNE,25,0.0,0.0,47,0.00,,,0.01,Wunderground v.1.13,2013-03-20 00:54:00,
2013-03-19 19:57:00,55.9,35.9,30.04,NNE,25,0.0,0.0,47,0.00,,,0.01,Wunderground v.1.13,2013-03-20 00:57:00,
2013-03-19 19:58:00,55.8,35.9,30.04,NNE,25,0.0,0.0,47,0.00,,,0.01,Wunderground v.1.13,2013-03-20 00:58:00,
2013-03-19 19:59:00,55.8,35.9,30.04,NNE,25,0.0,0.0,47,0.00,,,0.01,Wunderground v.1.13,2013-03-20 00:59:00,
2013-03-19 20:00:00,55.8,36.4,30.04,NNE,25,0.0,0.0,48,0.00,,,0.01,Wunderground v.1.13,2013-03-20 01:00:00,
2013-03-19 20:02:00,55.5,36.6,30.04,NNE,25,0.0,0.0,49,0.00,,,0.01,Wunderground v.1.13,2013-03-20 01:02:00,
2013-03-19 20:04:00,55.3,37.0,30.04,NNE,25,0.0,0.0,50,0.00,,,0.01,Wunderground v.1.13,2013-03-20 01:04:00,
2013-03-19 20:05:00,55.3,37.0,30.04,NNE,25,0.0,0.0,50,0.00,,,0.01,Wunderground v.1.13,2013-03-20 01:05:00,
2013-03-19 20:07:00,55.2,36.9,30.04,NNE,25,0.0,0.0,50,0.00,,,0.01,Wunderground v.1.13,2013-03-20 01:07:00,
2013-03-19 20:09:00,55.0,36.7,30.04,NNE,25,0.0,0.0,50,0.00,,,0.01,Wunderground v.1.13,2013-03-20 01:09:00,
2013-03-19 20:10:00,55.0,36.7,30.04,NNE,25,0.0,0.0,50,0.00,,,0.01,Wunderground v.1.13,2013-03-20 01:10:00,
2013-03-19 20:12:00,54.9,37.1,30.04,NNE,25,0.0,0.0,51,0.00,,,0.01,Wunderground v.1.13,2013-03-20 01:12:00,
2013-03-19 20:14:00,54.9,37.1,30.04,NNE,25,0.0,0.0,51,0.00,,,0.01,Wunderground v.1.13,2013-03-20 01:14:00,
2013-03-19 20:15:00,54.9,37.1,30.04,NNE,25,0.0,0.0,51,0.00,,,0.01,Wunderground v.1.13,2013-03-20 01:15:00,
2013-03-19 20:18:00,54.7,37.4,30.05,NNE,25,0.0,0.0,52,0.00,,,0.01,Wunderground v.1.13,2013-03-20 01:18:00,
2013-03-19 20:19:00,54.7,37.9,30.05,NNE,25,0.0,0.0,53,0.00,,,0.01,Wunderground v.1.13,2013-03-20 01:19:00,
2013-03-19 20:20:00,54.7,37.9,30.05,NNE,25,0.0,0.0,53,0.00,,,0.01,Wunderground v.1.13,2013-03-20 01:20:00,
2013-03-19 20:23:00,54.6,38.3,30.05,NNE,25,0.0,0.0,54,0.00,,,0.01,Wunderground v.1.13,2013-03-20 01:23:00,
2013-03-19 20:24:00,54.4,38.1,30.05,NNE,25,0.0,0.0,54,0.00,,,0.01,Wunderground v.1.13,2013-03-20 01:24:00,
2013-03-19 20:25:00,54.4,38.1,30.05,NNE,25,0.0,0.0,54,0.00,,,0.01,Wunderground v.1.13,2013-03-20 01:25:00,
2013-03-19 20:26:00,54.4,38.1,30.05,NNE,25,0.0,0.0,54,0.00,,,0.01,Wunderground v.1.13,2013-03-20 01:26:00,
2013-03-19 20:28:00,54.3,38.0,30.05,NNE,25,0.0,0.0,54,0.00,,,0.01,Wunderground v.1.13,2013-03-20 01:28:00,
2013-03-19 20:29:00,54.3,38.5,30.05,NNE,25,0.0,0.0,55,0.00,,,0.01,Wunderground v.1.13,2013-03-20 01:29:00,
2013-03-19 20:30:00,54.3,38.9,30.05,NNE,25,0.0,0.0,56,0.00,,,0.01,Wunderground v.1.13,2013-03-20 01:30:00,
2013-03-19 20:31:00,54.3,38.9,30.05,NNE,25,0.0,0.0,56,0.00,,,0.01,Wunderground v.1.13,2013-03-20 01:31:00,
2013-03-19 20:33:00,54.1,38.3,30.06,NNE,25,0.0,0.0,55,0.00,,,0.01,Wunderground v.1.13,2013-03-20 01:33:00,
2013-03-19 20:34:00,54.1,37.8,30.06,NNE,25,0.0,0.0,54,0.00,,,0.01,Wunderground v.1.13,2013-03-20 01:34:00,
2013-03-19 20:35:00,54.1,37.3,30.06,NNE,25,0.0,0.0,53,0.00,,,0.01,Wunderground v.1.13,2013-03-20 01:35:00,
2013-03-19 20:36:00,54.1,37.3,30.06,NNE,25,0.0,0.0,53,0.00,,,0.01,Wunderground v.1.13,2013-03-20 01:36:00,
2013-03-19 20:38:00,54.1,38.3,30.06,NNE,25,0.0,0.0,55,0.00,,,0.01,Wunderground v.1.13,2013-03-20 01:38:00,
2013-03-19 20:40:00,54.0,38.2,30.06,NNE,25,0.0,0.0,55,0.00,,,0.01,Wunderground v.1.13,2013-03-20 01:40:00,
2013-03-19 20:42:00,54.0,38.6,30.06,NNE,25,0.0,0.0,56,0.00,,,0.01,Wunderground v.1.13,2013-03-20 01:42:00,
2013-03-19 20:43:00,54.0,38.6,30.06,NNE,25,0.0,0.0,56,0.00,,,0.01,Wunderground v.1.13,2013-03-20 01:43:00,
2013-03-19 20:45:00,53.9,38.6,30.06,NNE,25,0.0,0.0,56,0.00,,,0.01,Wunderground v.1.13,2013-03-20 01:45:00,
2013-03-19 20:47:00,53.9,39.0,30.07,NNE,25,0.0,0.0,57,0.00,,,0.01,Wunderground v.1.13,2013-03-20 01:47:00,
2013-03-19 20:48:00,53.9,39.5,30.07,NNE,25,0.0,0.0,58,0.00,,,0.01,Wunderground v.1.13,2013-03-20 01:48:00,
2013-03-19 20:50:00,53.9,39.5,30.07,NNE,25,0.0,0.0,58,0.00,,,0.01,Wunderground v.1.13,2013-03-20 01:50:00,
2013-03-19 20:52:00,53.7,38.8,30.07,NNE,25,0.0,0.0,57,0.00,,,0.01,Wunderground v.1.13,2013-03-20 01:52:00,
2013-03-19 20:53:00,53.7,38.8,30.07,NNE,25,0.0,0.0,57,0.00,,,0.01,Wunderground v.1.13,2013-03-20 01:53:00,
2013-03-19 20:55:00,53.6,38.7,30.07,NNE,25,0.0,0.0,57,0.00,,,0.01,Wunderground v.1.13,2013-03-20 01:55:00,
2013-03-19 20:57:00,53.4,39.0,30.07,NNE,25,0.0,0.0,58,0.00,,,0.01,Wunderground v.1.13,2013-03-20 01:57:00,
2013-03-19 20:58:00,53.4,39.0,30.07,NNE,25,0.0,0.0,58,0.00,,,0.01,Wunderground v.1.13,2013-03-20 01:58:00,
2013-03-19 21:00:00,53.4,39.4,30.07,NNE,25,0.0,0.0,59,0.00,,,0.01,Wunderground v.1.13,2013-03-20 02:00:00,
2013-03-19 21:03:00,53.3,39.3,30.08,NNE,25,0.0,0.0,59,0.00,,,0.01,Wunderground v.1.13,2013-03-20 02:03:00,
2013-03-19 21:05:00,53.1,39.1,30.08,NNE,25,0.0,0.0,59,0.00,,,0.01,Wunderground v.1.13,2013-03-20 02:05:00,
2013-03-19 21:08:00,53.0,39.0,30.08,NNE,25,0.0,0.0,59,0.00,,,0.01,Wunderground v.1.13,2013-03-20 02:08:00,
2013-03-19 21:10:00,52.8,39.3,30.08,NNE,25,0.0,0.0,60,0.00,,,0.01,Wunderground v.1.13,2013-03-20 02:10:00,
2013-03-19 21:13:00,52.8,39.3,30.08,NNE,25,0.0,0.0,60,0.00,,,0.01,Wunderground v.1.13,2013-03-20 02:13:00,
2013-03-19 21:16:00,52.7,39.2,30.08,NNE,25,0.0,0.0,60,0.00,,,0.01,Wunderground v.1.13,2013-03-20 02:16:00,
2013-03-19 21:18:00,52.5,39.0,30.07,NNE,25,0.0,0.0,60,0.00,,,0.01,Wunderground v.1.13,2013-03-20 02:18:00,
2013-03-19 21:19:00,52.5,39.0,30.07,NNE,25,0.0,0.0,60,0.00,,,0.01,Wunderground v.1.13,2013-03-20 02:19:00,
2013-03-19 21:21:00,52.5,39.0,30.07,NNE,25,0.0,0.0,60,0.00,,,0.01,Wunderground v.1.13,2013-03-20 02:21:00,
2013-03-19 21:23:00,52.4,39.3,30.07,NNE,25,0.0,0.0,61,0.00,,,0.01,Wunderground v.1.13,2013-03-20 02:23:00,
2013-03-19 21:24:00,52.4,39.3,30.07,NNE,25,0.0,0.0,61,0.00,,,0.01,Wunderground v.1.13,2013-03-20 02:24:00,
2013-03-19 21:26:00,52.4,39.3,30.07,NNE,25,0.0,0.0,61,0.00,,,0.01,Wunderground v.1.13,2013-03-20 02:26:00,
2013-03-19 21:28:00,52.4,39.8,30.07,NNE,25,0.0,0.0,62,0.00,,,0.01,Wunderground v.1.13,2013-03-20 02:28:00,
2013-03-19 21:29:00,52.4,39.3,30.07,NNE,25,0.0,0.0,61,0.00,,,0.01,Wunderground v.1.13,2013-03-20 02:29:00,
2013-03-19 21:31:00,52.4,38.9,30.07,NNE,25,0.0,0.0,60,0.00,,,0.01,Wunderground v.1.13,2013-03-20 02:31:00,
2013-03-19 21:34:00,52.4,38.9,30.07,NNE,25,0.0,0.0,60,0.00,,,0.01,Wunderground v.1.13,2013-03-20 02:34:00,
2013-03-19 21:37:00,52.4,38.9,30.07,NNE,25,0.0,0.0,60,0.00,,,0.01,Wunderground v.1.13,2013-03-20 02:37:00,
2013-03-19 21:39:00,52.4,39.8,30.07,NNE,25,0.0,0.0,62,0.00,,,0.01,Wunderground v.1.13,2013-03-20 02:39:00,
2013-03-19 21:40:00,52.4,39.8,30.07,NNE,25,0.0,0.0,62,0.00,,,0.01,Wunderground v.1.13,2013-03-20 02:40:00,
2013-03-19 21:42:00,52.2,39.6,30.07,NNE,25,0.0,0.0,62,0.00,,,0.01,Wunderground v.1.13,2013-03-20 02:42:00,
2013-03-19 21:44:00,52.2,39.6,30.07,NNE,25,0.0,0.0,62,0.00,,,0.01,Wunderground v.1.13,2013-03-20 02:44:00,
2013-03-19 21:45:00,52.2,39.6,30.07,NNE,25,0.0,0.0,62,0.00,,,0.01,Wunderground v.1.13,2013-03-20 02:45:00,
2013-03-19 21:48:00,52.2,39.6,30.07,NNE,25,0.0,0.0,62,0.00,,,0.01,Wunderground v.1.13,2013-03-20 02:48:00,
2013-03-19 21:49:00,52.2,39.6,30.07,NNE,25,0.0,0.0,62,0.00,,,0.01,Wunderground v.1.13,2013-03-20 02:49:00,
2013-03-19 21:50:00,52.2,39.6,30.07,NNE,25,0.0,0.0,62,0.00,,,0.01,Wunderground v.1.13,2013-03-20 02:50:00,
2013-03-19 21:51:00,52.1,39.5,30.07,NNE,25,0.0,0.0,62,0.00,,,0.01,Wunderground v.1.13,2013-03-20 02:51:00,
2013-03-19 21:53:00,52.1,39.5,30.07,NNE,25,0.0,0.0,62,0.00,,,0.01,Wunderground v.1.13,2013-03-20 02:53:00,
2013-03-19 21:54:00,52.1,39.5,30.07,NNE,25,0.0,0.0,62,0.00,,,0.01,Wunderground v.1.13,2013-03-20 02:54:00,
2013-03-19 21:55:00,52.1,39.5,30.07,NNE,25,0.0,0.0,62,0.00,,,0.01,Wunderground v.1.13,2013-03-20 02:55:00,
2013-03-19 21:56:00,52.1,39.5,30.07,NNE,25,0.0,0.0,62,0.00,,,0.01,Wunderground v.1.13,2013-03-20 02:56:00,
2013-03-19 21:58:00,51.9,39.3,30.07,NNE,25,0.0,0.0,62,0.00,,,0.01,Wunderground v.1.13,2013-03-20 02:58:00,
2013-03-19 21:59:00,51.9,39.3,30.07,NNE,25,0.0,0.0,62,0.00,,,0.01,Wunderground v.1.13,2013-03-20 02:59:00,
2013-03-19 22:00:00,51.8,39.2,30.07,NNE,25,0.0,0.0,62,0.00,,,0.01,Wunderground v.1.13,2013-03-20 03:00:00,
2013-03-19 22:01:00,51.8,39.2,30.07,NNE,25,0.0,0.0,62,0.00,,,0.01,Wunderground v.1.13,2013-03-20 03:01:00,
2013-03-19 22:04:00,51.8,39.2,30.07,NNE,25,0.0,0.0,62,0.00,,,0.01,Wunderground v.1.13,2013-03-20 03:04:00,
2013-03-19 22:05:00,51.6,39.0,30.07,NNE,25,0.0,0.0,62,0.00,,,0.01,Wunderground v.1.13,2013-03-20 03:05:00,
2013-03-19 22:06:00,51.6,39.4,30.07,NNE,25,0.0,0.0,63,0.00,,,0.01,Wunderground v.1.13,2013-03-20 03:06:00,
2013-03-19 22:09:00,51.6,39.4,30.07,NNE,25,0.0,0.0,63,0.00,,,0.01,Wunderground v.1.13,2013-03-20 03:09:00,
2013-03-19 22:10:00,51.5,39.3,30.07,NNE,25,0.0,0.0,63,0.00,,,0.01,Wunderground v.1.13,2013-03-20 03:10:00,
2013-03-19 22:11:00,51.5,39.3,30.07,NNE,25,0.0,0.0,63,0.00,,,0.01,Wunderground v.1.13,2013-03-20 03:11:00,
2013-03-19 22:12:00,51.5,39.3,30.07,NNE,25,0.0,0.0,63,0.00,,,0.01,Wunderground v.1.13,2013-03-20 03:12:00,
2013-03-19 22:14:00,51.5,39.3,30.07,NNE,25,0.0,0.0,63,0.00,,,0.01,Wunderground v.1.13,2013-03-20 03:14:00,
2013-03-19 22:15:00,51.3,39.5,30.07,NNE,25,0.0,0.0,64,0.00,,,0.01,Wunderground v.1.13,2013-03-20 03:15:00,
2013-03-19 22:17:00,51.3,39.5,30.07,NNE,25,0.0,0.0,64,0.00,,,0.01,Wunderground v.1.13,2013-03-20 03:17:00,
2013-03-19 22:20:00,51.2,39.4,30.08,NNE,25,0.0,0.0,64,0.00,,,0.01,Wunderground v.1.13,2013-03-20 03:20:00,
2013-03-19 22:22:00,51.2,39.4,30.08,NNE,25,0.0,0.0,64,0.00,,,0.01,Wunderground v.1.13,2013-03-20 03:22:00,
2013-03-19 22:25:00,51.0,39.2,30.08,NNE,25,0.0,0.0,64,0.00,,,0.01,Wunderground v.1.13,2013-03-20 03:25:00,
2013-03-19 22:27:00,50.9,39.5,30.08,NNE,25,0.0,0.0,65,0.00,,,0.01,Wunderground v.1.13,2013-03-20 03:27:00,
2013-03-19 22:30:00,50.7,39.4,30.08,NNE,25,0.0,0.0,65,0.00,,,0.01,Wunderground v.1.13,2013-03-20 03:30:00,
2013-03-19 22:31:00,50.6,39.3,30.08,NNE,25,0.0,0.0,65,0.00,,,0.01,Wunderground v.1.13,2013-03-20 03:31:00,
2013-03-19 22:32:00,50.6,39.3,30.08,NNE,25,0.0,0.0,65,0.00,,,0.01,Wunderground v.1.13,2013-03-20 03:32:00,
2013-03-19 22:35:00,50.4,39.1,30.08,NNE,25,0.0,0.0,65,0.00,,,0.01,Wunderground v.1.13,2013-03-20 03:35:00,
2013-03-19 22:36:00,50.4,39.1,30.08,NNE,25,0.0,0.0,65,0.00,,,0.01,Wunderground v.1.13,2013-03-20 03:36:00,
2013-03-19 22:37:00,50.4,39.5,30.08,NNE,25,0.0,0.0,66,0.00,,,0.01,Wunderground v.1.13,2013-03-20 03:37:00,
2013-03-19 22:40:00,50.3,39.4,30.08,NNE,25,0.0,0.0,66,0.00,,,0.01,Wunderground v.1.13,2013-03-20 03:40:00,
2013-03-19 22:41:00,50.3,39.4,30.08,NNE,25,0.0,0.0,66,0.00,,,0.01,Wunderground v.1.13,2013-03-20 03:41:00,
2013-03-19 22:42:00,50.2,39.3,30.08,NNE,25,0.0,0.0,66,0.00,,,0.01,Wunderground v.1.13,2013-03-20 03:42:00,
2013-03-19 22:43:00,50.2,39.3,30.08,NNE,25,0.0,0.0,66,0.00,,,0.01,Wunderground v.1.13,2013-03-20 03:43:00,
2013-03-19 22:45:00,50.0,39.1,30.08,NNE,25,0.0,0.0,66,0.00,,,0.01,Wunderground v.1.13,2013-03-20 03:45:00,
2013-03-19 22:47:00,50.0,39.1,30.08,NNE,25,0.0,0.0,66,0.00,,,0.01,Wunderground v.1.13,2013-03-20 03:47:00,
2013-03-19 22:48:00,49.9,39.0,30.07,NNE,25,0.0,0.0,66,0.00,,,0.01,Wunderground v.1.13,2013-03-20 03:48:00,
2013-03-19 22:50:00,49.9,39.0,30.07,NNE,25,0.0,0.0,66,0.00,,,0.01,Wunderground v.1.13,2013-03-20 03:50:00,
2013-03-19 22:52:00,49.7,38.4,30.07,NNE,25,0.0,0.0,65,0.00,,,0.01,Wunderground v.1.13,2013-03-20 03:52:00,
2013-03-19 22:53:00,49.7,38.4,30.07,NNE,25,0.0,0.0,65,0.00,,,0.01,Wunderground v.1.13,2013-03-20 03:53:00,
2013-03-19 22:56:00,49.7,39.2,30.07,NNE,25,0.0,0.0,67,0.00,,,0.01,Wunderground v.1.13,2013-03-20 03:56:00,
2013-03-19 22:57:00,49.6,38.7,30.07,NNE,25,0.0,0.0,66,0.00,,,0.01,Wunderground v.1.13,2013-03-20 03:57:00,
2013-03-19 22:58:00,49.6,38.7,30.07,NNE,25,0.0,0.0,66,0.00,,,0.01,Wunderground v.1.13,2013-03-20 03:58:00,
2013-03-19 23:00:00,49.6,39.1,30.07,NNE,25,0.0,0.0,67,0.00,,,0.01,Wunderground v.1.13,2013-03-20 04:00:00,
2013-03-19 23:05:00,49.4,38.5,30.07,NNE,25,0.0,0.0,66,0.00,,,0.01,Wunderground v.1.13,2013-03-20 04:05:00,
2013-03-19 23:10:00,49.3,38.8,30.07,NNE,25,0.0,0.0,67,0.00,,,0.01,Wunderground v.1.13,2013-03-20 04:10:00,
2013-03-19 23:11:00,49.3,38.4,30.07,NNE,25,0.0,0.0,66,0.00,,,0.01,Wunderground v.1.13,2013-03-20 04:11:00,
2013-03-19 23:15:00,49.1,38.2,30.07,NNE,25,0.0,0.0,66,0.00,,,0.01,Wunderground v.1.13,2013-03-20 04:15:00,
2013-03-19 23:16:00,49.1,38.2,30.07,NNE,25,0.0,0.0,66,0.00,,,0.01,Wunderground v.1.13,2013-03-20 04:16:00,
2013-03-19 23:17:00,49.0,38.1,30.07,NNE,25,0.0,0.0,66,0.00,,,0.01,Wunderground v.1.13,2013-03-20 04:17:00,
2013-03-19 23:21:00,48.8,38.3,30.07,NNE,25,0.0,0.0,67,0.00,,,0.01,Wunderground v.1.13,2013-03-20 04:21:00,
2013-03-19 23:22:00,48.8,38.3,30.07,NNE,25,0.0,0.0,67,0.00,,,0.01,Wunderground v.1.13,2013-03-20 04:22:00,
2013-03-19 23:26:00,48.7,37.8,30.07,NNE,25,0.0,0.0,66,0.00,,,0.01,Wunderground v.1.13,2013-03-20 04:26:00,
2013-03-19 23:27:00,48.7,38.2,30.07,NNE,25,0.0,0.0,67,0.00,,,0.01,Wunderground v.1.13,2013-03-20 04:27:00,
2013-03-19 23:31:00,48.5,38.0,30.07,NNE,25,0.0,0.0,67,0.00,,,0.01,Wunderground v.1.13,2013-03-20 04:31:00,
2013-03-19 23:32:00,48.5,38.0,30.07,NNE,25,0.0,0.0,67,0.00,,,0.01,Wunderground v.1.13,2013-03-20 04:32:00,
2013-03-19 23:36:00,48.4,38.3,30.07,NNE,25,0.0,0.0,68,0.00,,,0.01,Wunderground v.1.13,2013-03-20 04:36:00,
2013-03-19 23:37:00,48.4,38.3,30.07,NNE,25,0.0,0.0,68,0.00,,,0.01,Wunderground v.1.13,2013-03-20 04:37:00,
2013-03-19 23:38:00,48.4,38.3,30.07,NNE,25,0.0,0.0,68,0.00,,,0.01,Wunderground v.1.13,2013-03-20 04:38:00,
2013-03-19 23:42:00,48.1,38.4,30.07,NNE,25,0.0,0.0,69,0.00,,,0.01,Wunderground v.1.13,2013-03-20 04:42:00,
2013-03-19 23:43:00,48.1,38.4,30.07,NNE,25,0.0,0.0,69,0.00,,,0.01,Wunderground v.1.13,2013-03-20 04:43:00,
2013-03-19 23:47:00,47.8,38.5,30.07,NNE,25,0.0,0.0,70,0.00,,,0.01,Wunderground v.1.13,2013-03-20 04:47:00,
2013-03-19 23:48:00,47.8,38.1,30.07,NNE,25,0.0,0.0,69,0.00,,,0.01,Wunderground v.1.13,2013-03-20 04:48:00,
2013-03-19 23:52:00,47.6,38.3,30.07,NNE,25,0.0,0.0,70,0.00,,,0.01,Wunderground v.1.13,2013-03-20 04:52:00,
2013-03-19 23:53:00,47.6,38.3,30.07,NNE,25,0.0,0.0,70,0.00,,,0.01,Wunderground v.1.13,2013-03-20 04:53:00,
2013-03-19 23:58:00,47.5,38.6,30.07,NNE,25,0.0,0.0,71,0.00,,,0.01,Wunderground v.1.13,2013-03-20 04:58:00,
2013-03-19 23:59:00,47.5,38.6,30.07,NNE,25,0.0,0.0,71,0.00,,,0.01,Wunderground v.1.13,2013-03-20 04:59:00,